2016 Cux-Wetter.de -Die Nutzung der Wetterdaten nur mit ausdrcklicher Genehmigung
Wetterdaten: Montag, 20.05.2019
Datum Zeit Temp. A. Feuchte A. Luftdruck Regen Wind Richtung Richtung Sonnenschein Solar Taupunkt Windchill Windben
20.05.2019 00:00 15,0 C 91 % 1004,5 hPa 0,0 l/m 4,5 km/h (1 Bft) NO 36 0 min 0 W/m 13,5 C 15,0 C 11,3 km/h (2 Bft)
20.05.2019 00:03 14,9 C 91 % 1004,6 hPa 0,0 l/m 2,9 km/h (1 Bft) O-NO 57 0 min 0 W/m 13,4 C 14,9 C 4,8 km/h (1 Bft)
20.05.2019 00:06 14,9 C 91 % 1004,5 hPa 0,0 l/m 1,6 km/h (1 Bft) O-NO 58 0 min 0 W/m 13,4 C 14,9 C 4,8 km/h (1 Bft)
20.05.2019 00:09 14,9 C 91 % 1004,5 hPa 0,0 l/m 1,5 km/h (1 Bft) O-NO 58 0 min 0 W/m 13,4 C 14,9 C 4,8 km/h (1 Bft)
20.05.2019 00:12 14,9 C 91 % 1004,6 hPa 0,0 l/m 2,6 km/h (1 Bft) O-NO 60 0 min 0 W/m 13,4 C 14,9 C 9,7 km/h (2 Bft)
20.05.2019 00:15 14,9 C 91 % 1004,5 hPa 0,0 l/m 2,9 km/h (1 Bft) NO 36 0 min 0 W/m 13,4 C 14,9 C 6,4 km/h (2 Bft)
20.05.2019 00:18 14,9 C 91 % 1004,5 hPa 0,0 l/m 2,4 km/h (1 Bft) NO 38 0 min 0 W/m 13,4 C 14,9 C 6,4 km/h (2 Bft)
20.05.2019 00:21 14,9 C 91 % 1004,5 hPa 0,0 l/m 3,3 km/h (1 Bft) O-NO 77 0 min 0 W/m 13,4 C 14,9 C 11,3 km/h (2 Bft)
20.05.2019 00:24 14,9 C 91 % 1004,5 hPa 0,0 l/m 2,3 km/h (1 Bft) NO 46 0 min 0 W/m 13,4 C 14,9 C 9,7 km/h (2 Bft)
20.05.2019 00:27 14,9 C 91 % 1004,5 hPa 0,0 l/m 2,5 km/h (1 Bft) NO 49 0 min 0 W/m 13,4 C 14,9 C 6,4 km/h (2 Bft)
20.05.2019 00:30 14,9 C 91 % 1004,5 hPa 0,0 l/m 2,5 km/h (1 Bft) NO 42 0 min 0 W/m 13,4 C 14,9 C 8,0 km/h (2 Bft)
20.05.2019 00:33 14,9 C 91 % 1004,5 hPa 0,0 l/m 2,2 km/h (1 Bft) NO 40 0 min 0 W/m 13,4 C 14,9 C 4,8 km/h (1 Bft)
20.05.2019 00:36 14,8 C 91 % 1004,5 hPa 0,0 l/m 3,7 km/h (1 Bft) O 97 0 min 0 W/m 13,3 C 14,8 C 16,1 km/h (3 Bft)
20.05.2019 00:39 14,8 C 91 % 1004,4 hPa 0,0 l/m 3,1 km/h (1 Bft) NO 43 0 min 0 W/m 13,3 C 14,8 C 8,0 km/h (2 Bft)
20.05.2019 00:42 14,8 C 91 % 1004,4 hPa 0,0 l/m 3,0 km/h (1 Bft) O-NO 62 0 min 0 W/m 13,3 C 14,8 C 8,0 km/h (2 Bft)
20.05.2019 00:45 14,8 C 91 % 1004,4 hPa 0,0 l/m 2,1 km/h (1 Bft) O-NO 61 0 min 0 W/m 13,3 C 14,8 C 9,7 km/h (2 Bft)
20.05.2019 00:48 14,7 C 91 % 1004,4 hPa 0,0 l/m 1,4 km/h (1 Bft) O-NO 65 0 min 0 W/m 13,2 C 14,7 C 8,0 km/h (2 Bft)
20.05.2019 00:51 14,7 C 91 % 1004,4 hPa 0,0 l/m 2,7 km/h (1 Bft) NO 54 0 min 0 W/m 13,2 C 14,7 C 9,7 km/h (2 Bft)
20.05.2019 00:54 14,7 C 91 % 1004,3 hPa 0,0 l/m 2,7 km/h (1 Bft) NO 34 0 min 0 W/m 13,2 C 14,7 C 8,0 km/h (2 Bft)
20.05.2019 00:57 14,7 C 91 % 1004,3 hPa 0,0 l/m 1,9 km/h (1 Bft) N-NO 26 0 min 0 W/m 13,2 C 14,7 C 8,0 km/h (2 Bft)
20.05.2019 01:00 14,7 C 91 % 1004,4 hPa 0,0 l/m 1,9 km/h (1 Bft) N-NO 26 0 min 0 W/m 13,2 C 14,7 C 6,4 km/h (2 Bft)
20.05.2019 01:03 14,6 C 91 % 1004,4 hPa 0,0 l/m 1,2 km/h (1 Bft) N-NO 26 0 min 0 W/m 13,1 C 14,6 C 6,4 km/h (2 Bft)
20.05.2019 01:06 14,6 C 91 % 1004,3 hPa 0,0 l/m 0,7 km/h (0 Bft) N-NO 26 0 min 0 W/m 13,1 C 14,6 C 3,2 km/h (1 Bft)
20.05.2019 01:09 14,6 C 91 % 1004,4 hPa 0,0 l/m 0,3 km/h (0 Bft) N-NO 26 0 min 0 W/m 13,1 C 14,6 C 3,2 km/h (1 Bft)
20.05.2019 01:12 14,6 C 91 % 1004,3 hPa 0,0 l/m 1,2 km/h (1 Bft) N-NO 26 0 min 0 W/m 13,1 C 14,6 C 3,2 km/h (1 Bft)
20.05.2019 01:15 14,6 C 91 % 1004,3 hPa 0,0 l/m 0,0 km/h (0 Bft) N-NO 26 0 min 0 W/m 13,1 C 14,6 C 1,6 km/h (1 Bft)
20.05.2019 01:18 14,5 C 91 % 1004,3 hPa 0,0 l/m 0,5 km/h (0 Bft) N-NO 26 0 min 0 W/m 13,0 C 14,5 C 1,6 km/h (1 Bft)
20.05.2019 01:21 14,4 C 92 % 1004,4 hPa 0,0 l/m 0,1 km/h (0 Bft) N-NO 26 0 min 0 W/m 13,1 C 14,4 C 1,6 km/h (1 Bft)
20.05.2019 01:24 14,4 C 91 % 1004,3 hPa 0,0 l/m 0,2 km/h (0 Bft) N-NO 26 0 min 0 W/m 12,9 C 14,4 C 1,6 km/h (1 Bft)
20.05.2019 01:27 14,4 C 91 % 1004,3 hPa 0,0 l/m 0,8 km/h (0 Bft) N-NO 26 0 min 0 W/m 12,9 C 14,4 C 4,8 km/h (1 Bft)
20.05.2019 01:30 14,3 C 92 % 1004,3 hPa 0,0 l/m 0,1 km/h (0 Bft) N-NO 26 0 min 0 W/m 13,0 C 14,3 C 1,6 km/h (1 Bft)
20.05.2019 01:33 14,3 C 92 % 1004,3 hPa 0,0 l/m 0,1 km/h (0 Bft) N-NO 26 0 min 0 W/m 13,0 C 14,3 C 1,6 km/h (1 Bft)
20.05.2019 01:36 14,3 C 92 % 1004,3 hPa 0,0 l/m 2,1 km/h (1 Bft) N-NO 27 0 min 0 W/m 13,0 C 14,3 C 6,4 km/h (2 Bft)
20.05.2019 01:39 14,3 C 92 % 1004,2 hPa 0,0 l/m 1,1 km/h (1 Bft) N-NO 27 0 min 0 W/m 13,0 C 14,3 C 4,8 km/h (1 Bft)
20.05.2019 01:42 14,4 C 92 % 1004,2 hPa 0,0 l/m 0,4 km/h (0 Bft) N-NO 27 0 min 0 W/m 13,1 C 14,4 C 1,6 km/h (1 Bft)
20.05.2019 01:45 14,3 C 92 % 1004,2 hPa 0,0 l/m 0,3 km/h (0 Bft) N-NO 27 0 min 0 W/m 13,0 C 14,3 C 3,2 km/h (1 Bft)
20.05.2019 01:48 14,3 C 92 % 1004,2 hPa 0,0 l/m 2,2 km/h (1 Bft) N-NO 27 0 min 0 W/m 13,0 C 14,3 C 6,4 km/h (2 Bft)
20.05.2019 01:51 14,3 C 92 % 1004,2 hPa 0,0 l/m 1,4 km/h (1 Bft) N-NO 27 0 min 0 W/m 13,0 C 14,3 C 8,0 km/h (2 Bft)
20.05.2019 01:54 14,3 C 92 % 1004,2 hPa 0,0 l/m 0,2 km/h (0 Bft) N-NO 27 0 min 0 W/m 13,0 C 14,3 C 1,6 km/h (1 Bft)
20.05.2019 01:57 14,3 C 93 % 1004,2 hPa 0,0 l/m 0,2 km/h (0 Bft) N-NO 27 0 min 0 W/m 13,2 C 14,3 C 1,6 km/h (1 Bft)
20.05.2019 02:00 14,3 C 93 % 1004,2 hPa 0,0 l/m 0,6 km/h (0 Bft) N-NO 27 0 min 0 W/m 13,2 C 14,3 C 3,2 km/h (1 Bft)
20.05.2019 02:03 14,3 C 93 % 1004,3 hPa 0,0 l/m 1,4 km/h (1 Bft) N-NO 27 0 min 0 W/m 13,2 C 14,3 C 4,8 km/h (1 Bft)
20.05.2019 02:06 14,3 C 93 % 1004,3 hPa 0,0 l/m 0,1 km/h (0 Bft) N-NO 27 0 min 0 W/m 13,2 C 14,3 C 3,2 km/h (1 Bft)
20.05.2019 02:09 14,4 C 93 % 1004,2 hPa 0,0 l/m 1,3 km/h (1 Bft) N-NO 28 0 min 0 W/m 13,3 C 14,4 C 8,0 km/h (2 Bft)
20.05.2019 02:12 14,4 C 93 % 1004,1 hPa 0,0 l/m 0,9 km/h (0 Bft) N-NO 28 0 min 0 W/m 13,3 C 14,4 C 4,8 km/h (1 Bft)
20.05.2019 02:15 14,4 C 93 % 1004,1 hPa 0,0 l/m 0,8 km/h (0 Bft) N-NO 29 0 min 0 W/m 13,3 C 14,4 C 3,2 km/h (1 Bft)
20.05.2019 02:18 14,3 C 93 % 1004,1 hPa 0,0 l/m 1,5 km/h (1 Bft) N-NO 29 0 min 0 W/m 13,2 C 14,3 C 6,4 km/h (2 Bft)
20.05.2019 02:21 14,3 C 93 % 1004,1 hPa 0,0 l/m 1,1 km/h (1 Bft) N-NO 29 0 min 0 W/m 13,2 C 14,3 C 3,2 km/h (1 Bft)
20.05.2019 02:24 14,3 C 93 % 1004,1 hPa 0,0 l/m 1,5 km/h (1 Bft) N-NO 29 0 min 0 W/m 13,2 C 14,3 C 4,8 km/h (1 Bft)
20.05.2019 02:27 14,3 C 93 % 1004,2 hPa 0,0 l/m 1,8 km/h (1 Bft) N-NO 29 0 min 0 W/m 13,2 C 14,3 C 6,4 km/h (2 Bft)
20.05.2019 02:30 14,3 C 93 % 1004,1 hPa 0,0 l/m 1,2 km/h (1 Bft) N-NO 29 0 min 0 W/m 13,2 C 14,3 C 3,2 km/h (1 Bft)
20.05.2019 02:33 14,3 C 93 % 1004,0 hPa 0,0 l/m 1,8 km/h (1 Bft) N-NO 29 0 min 0 W/m 13,2 C 14,3 C 6,4 km/h (2 Bft)
20.05.2019 02:36 14,3 C 93 % 1004,0 hPa 0,0 l/m 1,6 km/h (1 Bft) N-NO 29 0 min 0 W/m 13,2 C 14,3 C 6,4 km/h (2 Bft)
20.05.2019 02:39 14,3 C 93 % 1004,0 hPa 0,0 l/m 1,9 km/h (1 Bft) N-NO 29 0 min 0 W/m 13,2 C 14,3 C 6,4 km/h (2 Bft)
20.05.2019 02:42 14,3 C 93 % 1004,0 hPa 0,0 l/m 1,7 km/h (1 Bft) N-NO 29 0 min 0 W/m 13,2 C 14,3 C 8,0 km/h (2 Bft)
20.05.2019 02:45 14,3 C 93 % 1004,0 hPa 0,0 l/m 1,7 km/h (1 Bft) N-NO 31 0 min 0 W/m 13,2 C 14,3 C 6,4 km/h (2 Bft)
20.05.2019 02:48 14,3 C 93 % 1004,0 hPa 0,0 l/m 2,1 km/h (1 Bft) N-NO 31 0 min 0 W/m 13,2 C 14,3 C 8,0 km/h (2 Bft)
20.05.2019 02:51 14,2 C 93 % 1004,0 hPa 0,0 l/m 1,7 km/h (1 Bft) N-NO 31 0 min 0 W/m 13,1 C 14,2 C 3,2 km/h (1 Bft)
20.05.2019 02:54 14,2 C 93 % 1004,0 hPa 0,0 l/m 1,1 km/h (1 Bft) N-NO 31 0 min 0 W/m 13,1 C 14,2 C 4,8 km/h (1 Bft)
20.05.2019 02:57 14,2 C 93 % 1004,0 hPa 0,0 l/m 0,6 km/h (0 Bft) N-NO 31 0 min 0 W/m 13,1 C 14,2 C 1,6 km/h (1 Bft)
20.05.2019 03:00 14,2 C 93 % 1004,0 hPa 0,0 l/m 1,2 km/h (1 Bft) N-NO 31 0 min 0 W/m 13,1 C 14,2 C 3,2 km/h (1 Bft)
20.05.2019 03:03 14,2 C 93 % 1004,0 hPa 0,0 l/m 0,3 km/h (0 Bft) N-NO 31 0 min 0 W/m 13,1 C 14,2 C 1,6 km/h (1 Bft)
20.05.2019 03:06 14,2 C 93 % 1004,1 hPa 0,0 l/m 0,3 km/h (0 Bft) N-NO 31 0 min 0 W/m 13,1 C 14,2 C 1,6 km/h (1 Bft)
20.05.2019 03:09 14,2 C 93 % 1004,2 hPa 0,0 l/m 0,3 km/h (0 Bft) N-NO 31 0 min 0 W/m 13,1 C 14,2 C 1,6 km/h (1 Bft)
20.05.2019 03:12 14,1 C 93 % 1004,2 hPa 0,0 l/m 0,7 km/h (0 Bft) N-NO 31 0 min 0 W/m 13,0 C 14,1 C 3,2 km/h (1 Bft)
20.05.2019 03:15 14,1 C 93 % 1004,2 hPa 0,0 l/m 0,0 km/h (0 Bft) N-NO 31 0 min 0 W/m 13,0 C 14,1 C 1,6 km/h (1 Bft)
20.05.2019 03:18 13,9 C 93 % 1004,2 hPa 0,0 l/m 1,3 km/h (1 Bft) N-NO 31 0 min 0 W/m 12,8 C 13,9 C 4,8 km/h (1 Bft)
20.05.2019 03:21 13,9 C 93 % 1004,2 hPa 0,0 l/m 1,1 km/h (1 Bft) N-NO 31 0 min 0 W/m 12,8 C 13,9 C 4,8 km/h (1 Bft)
20.05.2019 03:24 14,0 C 93 % 1004,1 hPa 0,0 l/m 1,3 km/h (1 Bft) N-NO 31 0 min 0 W/m 12,9 C 14,0 C 3,2 km/h (1 Bft)
20.05.2019 03:27 13,9 C 93 % 1004,2 hPa 0,0 l/m 0,8 km/h (0 Bft) N-NO 31 0 min 0 W/m 12,8 C 13,9 C 3,2 km/h (1 Bft)
20.05.2019 03:30 13,9 C 93 % 1004,2 hPa 0,0 l/m 0,4 km/h (0 Bft) N-NO 31 0 min 0 W/m 12,8 C 13,9 C 3,2 km/h (1 Bft)
20.05.2019 03:33 13,9 C 93 % 1004,2 hPa 0,0 l/m 0,0 km/h (0 Bft) N-NO 31 0 min 0 W/m 12,8 C 13,9 C 0,0 km/h (0 Bft)
20.05.2019 03:36 13,9 C 93 % 1004,3 hPa 0,0 l/m 0,0 km/h (0 Bft) N-NO 31 0 min 0 W/m 12,8 C 13,9 C 0,0 km/h (0 Bft)
20.05.2019 03:39 13,9 C 93 % 1004,4 hPa 0,0 l/m 0,0 km/h (0 Bft) N-NO 31 0 min 0 W/m 12,8 C 13,9 C 0,0 km/h (0 Bft)
20.05.2019 03:42 13,9 C 94 % 1004,4 hPa 0,0 l/m 0,0 km/h (0 Bft) N-NO 31 0 min 0 W/m 12,9 C 13,9 C 0,0 km/h (0 Bft)
20.05.2019 03:45 13,9 C 94 % 1004,4 hPa 0,0 l/m 0,5 km/h (0 Bft) N-NO 31 0 min 0 W/m 12,9 C 13,9 C 6,4 km/h (2 Bft)
20.05.2019 03:48 13,9 C 94 % 1004,4 hPa 0,0 l/m 1,8 km/h (1 Bft) N-NO 31 0 min 0 W/m 12,9 C 13,9 C 4,8 km/h (1 Bft)
20.05.2019 03:51 13,9 C 94 % 1004,4 hPa 0,0 l/m 1,1 km/h (1 Bft) N-NO 31 0 min 0 W/m 12,9 C 13,9 C 4,8 km/h (1 Bft)
20.05.2019 03:54 13,8 C 94 % 1004,4 hPa 0,0 l/m 2,8 km/h (1 Bft) N-NO 31 0 min 0 W/m 12,9 C 13,8 C 6,4 km/h (2 Bft)
20.05.2019 03:57 13,8 C 94 % 1004,3 hPa 0,0 l/m 3,2 km/h (1 Bft) N-NO 31 0 min 0 W/m 12,9 C 13,8 C 6,4 km/h (2 Bft)
20.05.2019 04:00 13,8 C 94 % 1004,3 hPa 0,0 l/m 2,6 km/h (1 Bft) N-NO 31 0 min 0 W/m 12,9 C 13,8 C 6,4 km/h (2 Bft)
20.05.2019 04:03 13,8 C 94 % 1004,3 hPa 0,0 l/m 1,6 km/h (1 Bft) N-NO 31 0 min 0 W/m 12,9 C 13,8 C 4,8 km/h (1 Bft)
20.05.2019 04:06 13,8 C 94 % 1004,3 hPa 0,0 l/m 3,2 km/h (1 Bft) N-NO 31 0 min 0 W/m 12,9 C 13,8 C 6,4 km/h (2 Bft)
20.05.2019 04:09 13,8 C 94 % 1004,4 hPa 0,0 l/m 1,3 km/h (1 Bft) N-NO 31 0 min 0 W/m 12,9 C 13,8 C 4,8 km/h (1 Bft)
20.05.2019 04:12 13,9 C 94 % 1004,4 hPa 0,0 l/m 1,4 km/h (1 Bft) N-NO 31 0 min 0 W/m 12,9 C 13,9 C 8,0 km/h (2 Bft)
20.05.2019 04:15 13,9 C 94 % 1004,5 hPa 0,0 l/m 0,9 km/h (0 Bft) N-NO 31 0 min 0 W/m 12,9 C 13,9 C 3,2 km/h (1 Bft)
20.05.2019 04:18 13,9 C 94 % 1004,5 hPa 0,0 l/m 1,5 km/h (1 Bft) N-NO 31 0 min 0 W/m 12,9 C 13,9 C 6,4 km/h (2 Bft)
20.05.2019 04:21 13,9 C 94 % 1004,4 hPa 0,0 l/m 2,1 km/h (1 Bft) N-NO 31 0 min 0 W/m 12,9 C 13,9 C 6,4 km/h (2 Bft)
20.05.2019 04:24 13,9 C 94 % 1004,4 hPa 0,0 l/m 2,3 km/h (1 Bft) N-NO 31 0 min 0 W/m 12,9 C 13,9 C 4,8 km/h (1 Bft)
20.05.2019 04:27 13,8 C 94 % 1004,3 hPa 0,0 l/m 2,8 km/h (1 Bft) N-NO 31 0 min 0 W/m 12,9 C 13,8 C 6,4 km/h (2 Bft)
20.05.2019 04:30 13,8 C 94 % 1004,4 hPa 0,0 l/m 0,5 km/h (0 Bft) N-NO 31 0 min 0 W/m 12,9 C 13,8 C 4,8 km/h (1 Bft)
20.05.2019 04:33 13,9 C 94 % 1004,4 hPa 0,0 l/m 1,6 km/h (1 Bft) N-NO 31 0 min 0 W/m 12,9 C 13,9 C 4,8 km/h (1 Bft)
20.05.2019 04:36 13,9 C 94 % 1004,4 hPa 0,0 l/m 0,4 km/h (0 Bft) N-NO 31 0 min 0 W/m 12,9 C 13,9 C 1,6 km/h (1 Bft)
20.05.2019 04:39 13,8 C 94 % 1004,3 hPa 0,0 l/m 2,1 km/h (1 Bft) N-NO 32 0 min 0 W/m 12,9 C 13,8 C 4,8 km/h (1 Bft)
20.05.2019 04:42 13,8 C 94 % 1004,2 hPa 0,0 l/m 2,0 km/h (1 Bft) N-NO 32 0 min 0 W/m 12,9 C 13,8 C 4,8 km/h (1 Bft)
20.05.2019 04:45 13,8 C 95 % 1004,2 hPa 0,0 l/m 2,4 km/h (1 Bft) N-NO 32 0 min 0 W/m 13,0 C 13,8 C 6,4 km/h (2 Bft)
20.05.2019 04:48 13,8 C 95 % 1004,2 hPa 0,0 l/m 2,1 km/h (1 Bft) N-NO 32 0 min 0 W/m 13,0 C 13,8 C 4,8 km/h (1 Bft)
20.05.2019 04:51 13,8 C 95 % 1004,3 hPa 0,0 l/m 2,0 km/h (1 Bft) NO 34 0 min 0 W/m 13,0 C 13,8 C 6,4 km/h (2 Bft)
20.05.2019 04:54 13,8 C 95 % 1004,2 hPa 0,0 l/m 1,4 km/h (1 Bft) NO 34 0 min 0 W/m 13,0 C 13,8 C 4,8 km/h (1 Bft)
20.05.2019 04:57 13,8 C 95 % 1004,3 hPa 0,0 l/m 2,5 km/h (1 Bft) NO 34 0 min 0 W/m 13,0 C 13,8 C 6,4 km/h (2 Bft)
20.05.2019 05:00 13,8 C 95 % 1004,3 hPa 0,0 l/m 2,0 km/h (1 Bft) NO 34 0 min 0 W/m 13,0 C 13,8 C 6,4 km/h (2 Bft)
20.05.2019 05:03 13,8 C 94 % 1004,3 hPa 0,0 l/m 3,6 km/h (1 Bft) NO 36 0 min 0 W/m 12,9 C 13,8 C 9,7 km/h (2 Bft)
20.05.2019 05:06 13,8 C 95 % 1004,3 hPa 0,0 l/m 2,5 km/h (1 Bft) NO 36 0 min 0 W/m 13,0 C 13,8 C 6,4 km/h (2 Bft)
20.05.2019 05:09 13,8 C 95 % 1004,3 hPa 0,0 l/m 1,1 km/h (1 Bft) NO 36 0 min 0 W/m 13,0 C 13,8 C 3,2 km/h (1 Bft)
20.05.2019 05:12 13,8 C 95 % 1004,4 hPa 0,0 l/m 1,7 km/h (1 Bft) NO 36 0 min 0 W/m 13,0 C 13,8 C 6,4 km/h (2 Bft)
20.05.2019 05:15 13,8 C 95 % 1004,4 hPa 0,0 l/m 1,9 km/h (1 Bft) NO 36 0 min 0 W/m 13,0 C 13,8 C 4,8 km/h (1 Bft)
20.05.2019 05:18 13,8 C 95 % 1004,5 hPa 0,0 l/m 1,5 km/h (1 Bft) NO 36 0 min 0 W/m 13,0 C 13,8 C 3,2 km/h (1 Bft)
20.05.2019 05:21 13,8 C 95 % 1004,5 hPa 0,0 l/m 2,2 km/h (1 Bft) NO 36 0 min 0 W/m 13,0 C 13,8 C 4,8 km/h (1 Bft)
20.05.2019 05:24 13,8 C 95 % 1004,5 hPa 0,0 l/m 1,8 km/h (1 Bft) NO 36 0 min 0 W/m 13,0 C 13,8 C 4,8 km/h (1 Bft)
20.05.2019 05:27 13,8 C 95 % 1004,5 hPa 0,0 l/m 0,7 km/h (0 Bft) NO 36 0 min 0 W/m 13,0 C 13,8 C 3,2 km/h (1 Bft)
20.05.2019 05:30 13,8 C 95 % 1004,5 hPa 0,0 l/m 0,6 km/h (0 Bft) NO 36 0 min 0 W/m 13,0 C 13,8 C 3,2 km/h (1 Bft)
20.05.2019 05:33 13,8 C 95 % 1004,5 hPa 0,0 l/m 2,7 km/h (1 Bft) NO 44 0 min 0 W/m 13,0 C 13,8 C 14,5 km/h (3 Bft)
20.05.2019 05:36 13,8 C 95 % 1004,5 hPa 0,0 l/m 2,6 km/h (1 Bft) NO 51 0 min 5 W/m 13,0 C 13,8 C 6,4 km/h (2 Bft)
20.05.2019 05:39 13,7 C 95 % 1004,5 hPa 0,0 l/m 2,9 km/h (1 Bft) NO 50 0 min 5 W/m 12,9 C 13,7 C 9,7 km/h (2 Bft)
20.05.2019 05:42 13,7 C 95 % 1004,5 hPa 0,0 l/m 1,2 km/h (1 Bft) NO 50 0 min 7 W/m 12,9 C 13,7 C 3,2 km/h (1 Bft)
20.05.2019 05:45 13,7 C 95 % 1004,5 hPa 0,0 l/m 2,6 km/h (1 Bft) NO 50 0 min 7 W/m 12,9 C 13,7 C 6,4 km/h (2 Bft)
20.05.2019 05:48 13,7 C 95 % 1004,5 hPa 0,0 l/m 2,8 km/h (1 Bft) NO 50 0 min 7 W/m 12,9 C 13,7 C 6,4 km/h (2 Bft)
20.05.2019 05:51 13,7 C 95 % 1004,5 hPa 0,0 l/m 0,9 km/h (0 Bft) NO 50 0 min 9 W/m 12,9 C 13,7 C 4,8 km/h (1 Bft)
20.05.2019 05:54 13,7 C 95 % 1004,5 hPa 0,0 l/m 2,3 km/h (1 Bft) NO 52 0 min 9 W/m 12,9 C 13,7 C 4,8 km/h (1 Bft)
20.05.2019 05:57 13,6 C 95 % 1004,5 hPa 0,0 l/m 2,1 km/h (1 Bft) NO 52 0 min 11 W/m 12,8 C 13,6 C 6,4 km/h (2 Bft)
20.05.2019 06:00 13,6 C 95 % 1004,5 hPa 0,0 l/m 2,6 km/h (1 Bft) O-NO 61 0 min 12 W/m 12,8 C 13,6 C 11,3 km/h (2 Bft)
20.05.2019 06:03 13,6 C 95 % 1004,5 hPa 0,0 l/m 3,1 km/h (1 Bft) O-NO 58 0 min 12 W/m 12,8 C 13,6 C 6,4 km/h (2 Bft)
20.05.2019 06:06 13,6 C 95 % 1004,5 hPa 0,0 l/m 3,8 km/h (1 Bft) O-NO 61 0 min 11 W/m 12,8 C 13,6 C 9,7 km/h (2 Bft)
20.05.2019 06:09 13,6 C 95 % 1004,6 hPa 0,0 l/m 0,7 km/h (0 Bft) O-NO 61 0 min 11 W/m 12,8 C 13,6 C 4,8 km/h (1 Bft)
20.05.2019 06:12 13,6 C 95 % 1004,5 hPa 0,0 l/m 1,7 km/h (1 Bft) O-NO 61 0 min 12 W/m 12,8 C 13,6 C 4,8 km/h (1 Bft)
20.05.2019 06:15 13,6 C 95 % 1004,5 hPa 0,0 l/m 1,1 km/h (1 Bft) O-NO 61 0 min 14 W/m 12,8 C 13,6 C 4,8 km/h (1 Bft)
20.05.2019 06:18 13,5 C 95 % 1004,5 hPa 0,0 l/m 1,4 km/h (1 Bft) O-NO 60 0 min 14 W/m 12,7 C 13,5 C 4,8 km/h (1 Bft)
20.05.2019 06:21 13,4 C 95 % 1004,5 hPa 0,0 l/m 3,5 km/h (1 Bft) NO 44 0 min 14 W/m 12,6 C 13,4 C 11,3 km/h (2 Bft)
20.05.2019 06:24 13,4 C 95 % 1004,5 hPa 0,0 l/m 2,1 km/h (1 Bft) NO 42 0 min 14 W/m 12,6 C 13,4 C 4,8 km/h (1 Bft)
20.05.2019 06:27 13,4 C 95 % 1004,6 hPa 0,0 l/m 3,0 km/h (1 Bft) NO 45 0 min 16 W/m 12,6 C 13,4 C 8,0 km/h (2 Bft)
20.05.2019 06:30 13,4 C 95 % 1004,6 hPa 0,0 l/m 1,8 km/h (1 Bft) NO 44 0 min 18 W/m 12,6 C 13,4 C 6,4 km/h (2 Bft)
20.05.2019 06:33 13,4 C 95 % 1004,6 hPa 0,0 l/m 2,1 km/h (1 Bft) NO 42 0 min 19 W/m 12,6 C 13,4 C 6,4 km/h (2 Bft)
20.05.2019 06:36 13,3 C 95 % 1004,7 hPa 0,0 l/m 1,3 km/h (1 Bft) NO 42 0 min 19 W/m 12,5 C 13,3 C 3,2 km/h (1 Bft)
20.05.2019 06:39 13,3 C 95 % 1004,7 hPa 0,0 l/m 1,2 km/h (1 Bft) NO 42 0 min 21 W/m 12,5 C 13,3 C 3,2 km/h (1 Bft)
20.05.2019 06:42 13,3 C 95 % 1004,7 hPa 0,0 l/m 2,1 km/h (1 Bft) NO 42 0 min 21 W/m 12,5 C 13,3 C 4,8 km/h (1 Bft)
20.05.2019 06:45 13,3 C 95 % 1004,7 hPa 0,0 l/m 2,4 km/h (1 Bft) NO 39 0 min 21 W/m 12,5 C 13,3 C 8,0 km/h (2 Bft)
20.05.2019 06:48 13,3 C 95 % 1004,7 hPa 0,0 l/m 1,5 km/h (1 Bft) NO 39 0 min 21 W/m 12,5 C 13,3 C 4,8 km/h (1 Bft)
20.05.2019 06:51 13,3 C 95 % 1004,6 hPa 0,0 l/m 2,1 km/h (1 Bft) NO 39 0 min 25 W/m 12,5 C 13,3 C 6,4 km/h (2 Bft)
20.05.2019 06:54 13,2 C 95 % 1004,6 hPa 0,0 l/m 1,7 km/h (1 Bft) NO 39 0 min 25 W/m 12,4 C 13,2 C 4,8 km/h (1 Bft)
20.05.2019 06:57 13,3 C 95 % 1004,6 hPa 0,0 l/m 2,1 km/h (1 Bft) NO 39 0 min 26 W/m 12,5 C 13,3 C 6,4 km/h (2 Bft)
20.05.2019 07:00 13,3 C 95 % 1004,6 hPa 0,0 l/m 4,0 km/h (1 Bft) NO 39 0 min 28 W/m 12,5 C 13,3 C 8,0 km/h (2 Bft)
20.05.2019 07:03 13,3 C 95 % 1004,6 hPa 0,0 l/m 1,7 km/h (1 Bft) NO 39 0 min 30 W/m 12,5 C 13,3 C 4,8 km/h (1 Bft)
20.05.2019 07:06 13,3 C 95 % 1004,6 hPa 0,0 l/m 1,2 km/h (1 Bft) NO 39 0 min 32 W/m 12,5 C 13,3 C 4,8 km/h (1 Bft)
20.05.2019 07:09 13,3 C 95 % 1004,5 hPa 0,0 l/m 3,5 km/h (1 Bft) NO 40 0 min 33 W/m 12,5 C 13,3 C 9,7 km/h (2 Bft)
20.05.2019 07:12 13,2 C 95 % 1004,4 hPa 0,0 l/m 3,9 km/h (1 Bft) NO 34 0 min 35 W/m 12,4 C 13,2 C 6,4 km/h (2 Bft)
20.05.2019 07:15 13,2 C 95 % 1004,4 hPa 0,0 l/m 3,3 km/h (1 Bft) N 5 0 min 42 W/m 12,4 C 13,2 C 8,0 km/h (2 Bft)
20.05.2019 07:18 13,2 C 95 % 1004,4 hPa 0,0 l/m 3,3 km/h (1 Bft) N 5 0 min 44 W/m 12,4 C 13,2 C 4,8 km/h (1 Bft)
20.05.2019 07:21 13,3 C 96 % 1004,4 hPa 0,0 l/m 2,2 km/h (1 Bft) N-NO 19 0 min 42 W/m 12,7 C 13,3 C 6,4 km/h (2 Bft)
20.05.2019 07:24 13,2 C 95 % 1004,4 hPa 0,0 l/m 2,4 km/h (1 Bft) N-NO 26 0 min 47 W/m 12,4 C 13,2 C 8,0 km/h (2 Bft)
20.05.2019 07:27 13,3 C 96 % 1004,4 hPa 0,0 l/m 2,6 km/h (1 Bft) N-NO 33 0 min 46 W/m 12,7 C 13,3 C 6,4 km/h (2 Bft)
20.05.2019 07:30 13,3 C 96 % 1004,4 hPa 0,0 l/m 3,1 km/h (1 Bft) NO 35 0 min 44 W/m 12,7 C 13,3 C 8,0 km/h (2 Bft)
20.05.2019 07:33 13,3 C 96 % 1004,5 hPa 0,0 l/m 0,9 km/h (0 Bft) NO 35 0 min 46 W/m 12,7 C 13,3 C 3,2 km/h (1 Bft)
20.05.2019 07:36 13,4 C 96 % 1004,5 hPa 0,0 l/m 1,9 km/h (1 Bft) NO 35 0 min 47 W/m 12,8 C 13,4 C 6,4 km/h (2 Bft)
20.05.2019 07:39 13,4 C 96 % 1004,5 hPa 0,0 l/m 3,1 km/h (1 Bft) N 11 0 min 46 W/m 12,8 C 13,4 C 11,3 km/h (2 Bft)
20.05.2019 07:42 13,4 C 96 % 1004,5 hPa 0,0 l/m 0,5 km/h (0 Bft) N 11 0 min 44 W/m 12,8 C 13,4 C 1,6 km/h (1 Bft)
20.05.2019 07:45 13,5 C 96 % 1004,4 hPa 0,0 l/m 3,5 km/h (1 Bft) N-NO 15 0 min 51 W/m 12,9 C 13,5 C 11,3 km/h (2 Bft)
20.05.2019 07:48 13,5 C 96 % 1004,5 hPa 0,0 l/m 2,1 km/h (1 Bft) N-NO 15 0 min 49 W/m 12,9 C 13,5 C 4,8 km/h (1 Bft)
20.05.2019 07:51 13,5 C 96 % 1004,6 hPa 0,0 l/m 1,3 km/h (1 Bft) N-NO 15 0 min 42 W/m 12,9 C 13,5 C 6,4 km/h (2 Bft)
20.05.2019 07:54 13,4 C 95 % 1004,6 hPa 0,0 l/m 2,3 km/h (1 Bft) N-NO 19 0 min 42 W/m 12,6 C 13,4 C 6,4 km/h (2 Bft)
20.05.2019 07:57 13,4 C 96 % 1004,6 hPa 0,0 l/m 2,4 km/h (1 Bft) N-NO 19 0 min 49 W/m 12,8 C 13,4 C 4,8 km/h (1 Bft)
20.05.2019 08:00 13,5 C 96 % 1004,6 hPa 0,0 l/m 2,8 km/h (1 Bft) NO 44 0 min 49 W/m 12,9 C 13,5 C 6,4 km/h (2 Bft)
20.05.2019 08:03 13,5 C 96 % 1004,6 hPa 0,0 l/m 2,6 km/h (1 Bft) O 80 0 min 49 W/m 12,9 C 13,5 C 8,0 km/h (2 Bft)
20.05.2019 08:06 13,4 C 96 % 1004,6 hPa 0,0 l/m 2,4 km/h (1 Bft) O-NO 77 0 min 47 W/m 12,8 C 13,4 C 6,4 km/h (2 Bft)
20.05.2019 08:09 13,5 C 96 % 1004,6 hPa 0,0 l/m 1,3 km/h (1 Bft) O-NO 77 0 min 46 W/m 12,9 C 13,5 C 3,2 km/h (1 Bft)
20.05.2019 08:12 13,5 C 96 % 1004,7 hPa 0,0 l/m 2,2 km/h (1 Bft) O-NO 75 0 min 53 W/m 12,9 C 13,5 C 8,0 km/h (2 Bft)
20.05.2019 08:15 13,5 C 96 % 1004,7 hPa 0,0 l/m 2,7 km/h (1 Bft) O-NO 76 0 min 54 W/m 12,9 C 13,5 C 6,4 km/h (2 Bft)
20.05.2019 08:18 13,6 C 96 % 1004,7 hPa 0,0 l/m 3,1 km/h (1 Bft) NO 34 0 min 58 W/m 13,0 C 13,6 C 6,4 km/h (2 Bft)
20.05.2019 08:21 13,5 C 96 % 1004,7 hPa 0,0 l/m 2,6 km/h (1 Bft) NO 44 0 min 67 W/m 12,9 C 13,5 C 11,3 km/h (2 Bft)
20.05.2019 08:24 13,5 C 96 % 1004,6 hPa 0,0 l/m 3,3 km/h (1 Bft) O 84 0 min 65 W/m 12,9 C 13,5 C 11,3 km/h (2 Bft)
20.05.2019 08:27 13,6 C 96 % 1004,6 hPa 0,0 l/m 2,1 km/h (1 Bft) O 84 0 min 86 W/m 13,0 C 13,6 C 4,8 km/h (1 Bft)
20.05.2019 08:30 13,7 C 96 % 1004,6 hPa 0,0 l/m 0,8 km/h (0 Bft) O 84 0 min 83 W/m 13,1 C 13,7 C 3,2 km/h (1 Bft)
20.05.2019 08:33 13,6 C 96 % 1004,7 hPa 0,0 l/m 2,2 km/h (1 Bft) O 84 0 min 79 W/m 13,0 C 13,6 C 6,4 km/h (2 Bft)
20.05.2019 08:36 13,6 C 96 % 1004,7 hPa 0,0 l/m 3,2 km/h (1 Bft) N 5 0 min 76 W/m 13,0 C 13,6 C 8,0 km/h (2 Bft)
20.05.2019 08:39 13,6 C 96 % 1004,7 hPa 0,0 l/m 1,9 km/h (1 Bft) N 5 0 min 97 W/m 13,0 C 13,6 C 4,8 km/h (1 Bft)
20.05.2019 08:42 13,6 C 96 % 1004,7 hPa 0,0 l/m 2,3 km/h (1 Bft) N 5 0 min 107 W/m 13,0 C 13,6 C 4,8 km/h (1 Bft)
20.05.2019 08:45 13,6 C 96 % 1004,7 hPa 0,0 l/m 1,1 km/h (1 Bft) N 5 0 min 120 W/m 13,0 C 13,6 C 3,2 km/h (1 Bft)
20.05.2019 08:48 13,7 C 96 % 1004,7 hPa 0,0 l/m 2,9 km/h (1 Bft) N 5 0 min 118 W/m 13,1 C 13,7 C 6,4 km/h (2 Bft)
20.05.2019 08:51 13,8 C 96 % 1004,8 hPa 0,0 l/m 1,3 km/h (1 Bft) O-NO 69 0 min 132 W/m 13,2 C 13,8 C 6,4 km/h (2 Bft)
20.05.2019 08:54 13,8 C 95 % 1004,8 hPa 0,0 l/m 4,7 km/h (1 Bft) O-NO 63 0 min 156 W/m 13,0 C 13,8 C 8,0 km/h (2 Bft)
20.05.2019 08:57 13,8 C 95 % 1004,8 hPa 0,0 l/m 2,2 km/h (1 Bft) O-NO 63 0 min 178 W/m 13,0 C 13,8 C 4,8 km/h (1 Bft)
20.05.2019 09:00 13,9 C 95 % 1004,9 hPa 0,0 l/m 3,7 km/h (1 Bft) O-NO 63 0 min 176 W/m 13,1 C 13,9 C 6,4 km/h (2 Bft)
20.05.2019 09:03 13,9 C 95 % 1004,8 hPa 0,0 l/m 5,2 km/h (1 Bft) N 355 0 min 181 W/m 13,1 C 13,9 C 14,5 km/h (3 Bft)
20.05.2019 09:06 13,9 C 95 % 1004,9 hPa 0,0 l/m 3,6 km/h (1 Bft) NO 40 0 min 178 W/m 13,1 C 13,9 C 8,0 km/h (2 Bft)
20.05.2019 09:09 14,0 C 95 % 1004,9 hPa 0,0 l/m 4,2 km/h (1 Bft) O 82 0 min 151 W/m 13,2 C 14,0 C 9,7 km/h (2 Bft)
20.05.2019 09:12 13,9 C 95 % 1005,0 hPa 0,0 l/m 5,1 km/h (1 Bft) NO 51 0 min 141 W/m 13,1 C 13,9 C 8,0 km/h (2 Bft)
20.05.2019 09:15 13,9 C 95 % 1005,0 hPa 0,0 l/m 4,3 km/h (1 Bft) SO 130 0 min 135 W/m 13,1 C 13,9 C 11,3 km/h (2 Bft)
20.05.2019 09:18 14,0 C 95 % 1005,0 hPa 0,0 l/m 3,9 km/h (1 Bft) O-NO 61 0 min 141 W/m 13,2 C 14,0 C 9,7 km/h (2 Bft)
20.05.2019 09:21 14,0 C 95 % 1005,0 hPa 0,0 l/m 2,6 km/h (1 Bft) O-NO 61 0 min 127 W/m 13,2 C 14,0 C 6,4 km/h (2 Bft)
20.05.2019 09:24 14,0 C 95 % 1004,9 hPa 0,0 l/m 2,9 km/h (1 Bft) N-NW 348 0 min 134 W/m 13,2 C 14,0 C 8,0 km/h (2 Bft)
20.05.2019 09:27 14,1 C 95 % 1005,0 hPa 0,0 l/m 3,2 km/h (1 Bft) N 5 0 min 146 W/m 13,3 C 14,1 C 8,0 km/h (2 Bft)
20.05.2019 09:30 14,2 C 95 % 1005,0 hPa 0,0 l/m 2,2 km/h (1 Bft) N 5 0 min 162 W/m 13,4 C 14,2 C 6,4 km/h (2 Bft)
20.05.2019 09:33 14,3 C 95 % 1005,1 hPa 0,0 l/m 0,6 km/h (0 Bft) N 5 0 min 144 W/m 13,5 C 14,3 C 1,6 km/h (1 Bft)
20.05.2019 09:36 14,3 C 95 % 1005,1 hPa 0,0 l/m 3,0 km/h (1 Bft) O-NO 63 0 min 146 W/m 13,5 C 14,3 C 8,0 km/h (2 Bft)
20.05.2019 09:39 14,3 C 95 % 1005,1 hPa 0,0 l/m 4,1 km/h (1 Bft) N-NO 26 0 min 176 W/m 13,5 C 14,3 C 8,0 km/h (2 Bft)
20.05.2019 09:42 14,3 C 94 % 1005,1 hPa 0,0 l/m 2,3 km/h (1 Bft) N-NO 33 0 min 172 W/m 13,3 C 14,3 C 4,8 km/h (1 Bft)
20.05.2019 09:45 14,4 C 94 % 1005,2 hPa 0,0 l/m 3,7 km/h (1 Bft) NO 38 0 min 183 W/m 13,4 C 14,4 C 9,7 km/h (2 Bft)
20.05.2019 09:48 14,4 C 94 % 1005,1 hPa 0,0 l/m 4,2 km/h (1 Bft) O-NO 61 0 min 183 W/m 13,4 C 14,4 C 12,9 km/h (3 Bft)
20.05.2019 09:51 14,5 C 94 % 1005,1 hPa 0,0 l/m 3,5 km/h (1 Bft) NO 52 0 min 174 W/m 13,5 C 14,5 C 9,7 km/h (2 Bft)
20.05.2019 09:54 14,5 C 94 % 1005,1 hPa 0,0 l/m 3,1 km/h (1 Bft) O-NO 77 0 min 172 W/m 13,5 C 14,5 C 8,0 km/h (2 Bft)
20.05.2019 09:57 14,5 C 94 % 1005,2 hPa 0,0 l/m 2,8 km/h (1 Bft) O-NO 76 0 min 193 W/m 13,5 C 14,5 C 8,0 km/h (2 Bft)
20.05.2019 10:00 14,6 C 94 % 1005,1 hPa 0,0 l/m 1,5 km/h (1 Bft) O-NO 76 0 min 216 W/m 13,6 C 14,6 C 4,8 km/h (1 Bft)
20.05.2019 10:03 14,7 C 94 % 1005,1 hPa 0,0 l/m 2,2 km/h (1 Bft) NO 56 0 min 195 W/m 13,7 C 14,7 C 6,4 km/h (2 Bft)
20.05.2019 10:06 14,8 C 93 % 1005,2 hPa 0,0 l/m 4,0 km/h (1 Bft) NO 55 0 min 195 W/m 13,7 C 14,8 C 8,0 km/h (2 Bft)
20.05.2019 10:09 14,8 C 93 % 1005,1 hPa 0,0 l/m 2,3 km/h (1 Bft) NO 55 0 min 216 W/m 13,7 C 14,8 C 6,4 km/h (2 Bft)
20.05.2019 10:12 14,8 C 93 % 1005,1 hPa 0,0 l/m 3,3 km/h (1 Bft) NO 55 0 min 209 W/m 13,7 C 14,8 C 6,4 km/h (2 Bft)
20.05.2019 10:15 14,9 C 92 % 1005,1 hPa 0,0 l/m 1,9 km/h (1 Bft) NO 55 0 min 236 W/m 13,6 C 14,9 C 6,4 km/h (2 Bft)
20.05.2019 10:18 15,1 C 93 % 1005,1 hPa 0,0 l/m 2,3 km/h (1 Bft) NO 45 0 min 232 W/m 14,0 C 15,1 C 8,0 km/h (2 Bft)
20.05.2019 10:21 15,2 C 92 % 1005,1 hPa 0,0 l/m 3,6 km/h (1 Bft) NO 46 0 min 244 W/m 13,9 C 15,2 C 8,0 km/h (2 Bft)
20.05.2019 10:24 15,3 C 92 % 1005,1 hPa 0,0 l/m 2,7 km/h (1 Bft) NO 46 0 min 239 W/m 14,0 C 15,3 C 6,4 km/h (2 Bft)
20.05.2019 10:27 15,3 C 91 % 1005,2 hPa 0,0 l/m 4,3 km/h (1 Bft) O-NO 60 0 min 234 W/m 13,8 C 15,3 C 9,7 km/h (2 Bft)
20.05.2019 10:30 15,3 C 91 % 1005,1 hPa 0,0 l/m 2,9 km/h (1 Bft) O-NO 60 0 min 257 W/m 13,8 C 15,3 C 6,4 km/h (2 Bft)
20.05.2019 10:33 15,4 C 91 % 1005,2 hPa 0,0 l/m 1,9 km/h (1 Bft) O-NO 59 0 min 230 W/m 13,9 C 15,4 C 9,7 km/h (2 Bft)
20.05.2019 10:36 15,6 C 91 % 1005,2 hPa 0,0 l/m 3,7 km/h (1 Bft) O-NO 59 0 min 230 W/m 14,1 C 15,6 C 8,0 km/h (2 Bft)
20.05.2019 10:39 15,6 C 90 % 1005,2 hPa 0,0 l/m 3,5 km/h (1 Bft) O-NO 59 0 min 221 W/m 14,0 C 15,6 C 8,0 km/h (2 Bft)
20.05.2019 10:42 15,7 C 91 % 1005,2 hPa 0,0 l/m 1,3 km/h (1 Bft) O-NO 59 0 min 199 W/m 14,2 C 15,7 C 4,8 km/h (1 Bft)
20.05.2019 10:45 15,7 C 90 % 1005,2 hPa 0,0 l/m 1,7 km/h (1 Bft) O-NO 59 0 min 193 W/m 14,1 C 15,7 C 6,4 km/h (2 Bft)
20.05.2019 10:48 15,7 C 90 % 1005,2 hPa 0,0 l/m 3,1 km/h (1 Bft) O-NO 59 0 min 181 W/m 14,1 C 15,7 C 6,4 km/h (2 Bft)
20.05.2019 10:51 15,7 C 90 % 1005,2 hPa 0,0 l/m 3,8 km/h (1 Bft) O-NO 59 0 min 216 W/m 14,1 C 15,7 C 9,7 km/h (2 Bft)
20.05.2019 10:54 15,8 C 90 % 1005,2 hPa 0,0 l/m 3,1 km/h (1 Bft) O-NO 59 0 min 272 W/m 14,2 C 15,8 C 6,4 km/h (2 Bft)
20.05.2019 10:57 15,9 C 90 % 1005,2 hPa 0,0 l/m 3,0 km/h (1 Bft) O-NO 59 0 min 297 W/m 14,3 C 15,9 C 8,0 km/h (2 Bft)
20.05.2019 11:00 16,0 C 89 % 1005,2 hPa 0,0 l/m 1,8 km/h (1 Bft) O-NO 59 0 min 287 W/m 14,2 C 16,0 C 8,0 km/h (2 Bft)
20.05.2019 11:03 16,2 C 90 % 1005,2 hPa 0,0 l/m 2,9 km/h (1 Bft) O-NO 59 0 min 281 W/m 14,6 C 16,2 C 4,8 km/h (1 Bft)
20.05.2019 11:06 16,2 C 88 % 1005,2 hPa 0,0 l/m 3,0 km/h (1 Bft) O-NO 59 0 min 301 W/m 14,2 C 16,2 C 6,4 km/h (2 Bft)
20.05.2019 11:09 16,2 C 88 % 1005,2 hPa 0,0 l/m 2,6 km/h (1 Bft) O-NO 59 0 min 304 W/m 14,2 C 16,2 C 6,4 km/h (2 Bft)
20.05.2019 11:12 16,2 C 88 % 1005,3 hPa 0,0 l/m 3,6 km/h (1 Bft) O-NO 59 0 min 253 W/m 14,2 C 16,2 C 9,7 km/h (2 Bft)
20.05.2019 11:15 16,3 C 88 % 1005,3 hPa 0,0 l/m 2,3 km/h (1 Bft) O-NO 59 0 min 244 W/m 14,3 C 16,3 C 4,8 km/h (1 Bft)
20.05.2019 11:18 16,4 C 88 % 1005,3 hPa 0,0 l/m 3,9 km/h (1 Bft) O 88 0 min 246 W/m 14,4 C 16,4 C 11,3 km/h (2 Bft)
20.05.2019 11:21 16,4 C 88 % 1005,3 hPa 0,0 l/m 4,1 km/h (1 Bft) O-NO 63 0 min 216 W/m 14,4 C 16,4 C 6,4 km/h (2 Bft)
20.05.2019 11:24 16,5 C 88 % 1005,2 hPa 0,0 l/m 1,7 km/h (1 Bft) O-NO 63 0 min 229 W/m 14,5 C 16,5 C 6,4 km/h (2 Bft)
20.05.2019 11:27 16,5 C 88 % 1005,3 hPa 0,0 l/m 2,8 km/h (1 Bft) O-NO 66 0 min 213 W/m 14,5 C 16,5 C 8,0 km/h (2 Bft)
20.05.2019 11:30 16,5 C 88 % 1005,2 hPa 0,0 l/m 2,4 km/h (1 Bft) O-NO 65 0 min 216 W/m 14,5 C 16,5 C 8,0 km/h (2 Bft)
20.05.2019 11:33 16,5 C 88 % 1005,2 hPa 0,0 l/m 4,0 km/h (1 Bft) O-NO 65 0 min 220 W/m 14,5 C 16,5 C 8,0 km/h (2 Bft)
20.05.2019 11:36 16,5 C 88 % 1005,3 hPa 0,0 l/m 3,6 km/h (1 Bft) NO 34 0 min 214 W/m 14,5 C 16,5 C 9,7 km/h (2 Bft)
20.05.2019 11:39 16,6 C 88 % 1005,4 hPa 0,0 l/m 2,9 km/h (1 Bft) N-NO 32 0 min 202 W/m 14,6 C 16,6 C 8,0 km/h (2 Bft)
20.05.2019 11:42 16,6 C 88 % 1005,4 hPa 0,0 l/m 2,9 km/h (1 Bft) N-NO 32 0 min 211 W/m 14,6 C 16,6 C 6,4 km/h (2 Bft)
20.05.2019 11:45 16,6 C 88 % 1005,4 hPa 0,0 l/m 3,3 km/h (1 Bft) O-NO 60 0 min 213 W/m 14,6 C 16,6 C 9,7 km/h (2 Bft)
20.05.2019 11:48 16,6 C 88 % 1005,3 hPa 0,0 l/m 1,5 km/h (1 Bft) O-NO 60 0 min 221 W/m 14,6 C 16,6 C 3,2 km/h (1 Bft)
20.05.2019 11:51 16,7 C 89 % 1005,3 hPa 0,0 l/m 3,5 km/h (1 Bft) SO 134 0 min 220 W/m 14,9 C 16,7 C 8,0 km/h (2 Bft)
20.05.2019 11:54 16,7 C 88 % 1005,3 hPa 0,0 l/m 2,6 km/h (1 Bft) SO 133 0 min 237 W/m 14,7 C 16,7 C 4,8 km/h (1 Bft)
20.05.2019 11:57 16,7 C 89 % 1005,3 hPa 0,0 l/m 2,2 km/h (1 Bft) O-NO 77 0 min 229 W/m 14,9 C 16,7 C 8,0 km/h (2 Bft)
20.05.2019 12:00 16,8 C 89 % 1005,3 hPa 0,0 l/m 4,3 km/h (1 Bft) NO 36 0 min 241 W/m 15,0 C 16,8 C 8,0 km/h (2 Bft)
20.05.2019 12:03 16,8 C 88 % 1005,2 hPa 0,0 l/m 2,5 km/h (1 Bft) NO 36 0 min 281 W/m 14,8 C 16,8 C 4,8 km/h (1 Bft)
20.05.2019 12:06 16,8 C 89 % 1005,2 hPa 0,0 l/m 2,2 km/h (1 Bft) NO 36 0 min 288 W/m 15,0 C 16,8 C 4,8 km/h (1 Bft)
20.05.2019 12:09 17,1 C 89 % 1005,2 hPa 0,0 l/m 0,8 km/h (0 Bft) NO 36 0 min 276 W/m 15,3 C 17,1 C 4,8 km/h (1 Bft)
20.05.2019 12:12 17,2 C 89 % 1005,2 hPa 0,0 l/m 0,6 km/h (0 Bft) NO 36 0 min 283 W/m 15,4 C 17,2 C 3,2 km/h (1 Bft)
20.05.2019 12:15 17,3 C 88 % 1005,1 hPa 0,0 l/m 2,5 km/h (1 Bft) NO 36 0 min 322 W/m 15,3 C 17,3 C 4,8 km/h (1 Bft)
20.05.2019 12:18 17,3 C 88 % 1005,1 hPa 0,0 l/m 3,0 km/h (1 Bft) NO 36 0 min 332 W/m 15,3 C 17,3 C 6,4 km/h (2 Bft)
20.05.2019 12:21 17,5 C 88 % 1005,0 hPa 0,0 l/m 3,3 km/h (1 Bft) NO 37 0 min 380 W/m 15,5 C 17,5 C 6,4 km/h (2 Bft)
20.05.2019 12:24 17,6 C 87 % 1005,1 hPa 0,0 l/m 2,0 km/h (1 Bft) NO 37 0 min 396 W/m 15,4 C 17,6 C 4,8 km/h (1 Bft)
20.05.2019 12:27 17,8 C 87 % 1005,0 hPa 0,0 l/m 3,4 km/h (1 Bft) NO 36 0 min 383 W/m 15,6 C 17,8 C 8,0 km/h (2 Bft)
20.05.2019 12:30 17,9 C 86 % 1005,1 hPa 0,0 l/m 2,9 km/h (1 Bft) NO 36 0 min 381 W/m 15,5 C 17,9 C 4,8 km/h (1 Bft)
20.05.2019 12:33 17,9 C 86 % 1005,1 hPa 0,0 l/m 2,1 km/h (1 Bft) NO 37 0 min 334 W/m 15,5 C 17,9 C 6,4 km/h (2 Bft)
20.05.2019 12:36 18,0 C 86 % 1005,1 hPa 0,0 l/m 2,7 km/h (1 Bft) NO 37 0 min 313 W/m 15,6 C 18,0 C 4,8 km/h (1 Bft)
20.05.2019 12:39 18,0 C 85 % 1005,2 hPa 0,0 l/m 2,7 km/h (1 Bft) NO 37 0 min 367 W/m 15,4 C 18,0 C 6,4 km/h (2 Bft)
20.05.2019 12:42 18,0 C 86 % 1005,2 hPa 0,0 l/m 2,1 km/h (1 Bft) NO 37 0 min 413 W/m 15,6 C 18,0 C 6,4 km/h (2 Bft)
20.05.2019 12:45 18,3 C 85 % 1005,2 hPa 0,0 l/m 2,0 km/h (1 Bft) SO 135 3 min 545 W/m 15,7 C 18,3 C 6,4 km/h (2 Bft)
20.05.2019 12:48 18,6 C 84 % 1005,2 hPa 0,0 l/m 3,0 km/h (1 Bft) SO 136 3 min 536 W/m 15,8 C 18,6 C 8,0 km/h (2 Bft)
20.05.2019 12:51 18,7 C 84 % 1005,2 hPa 0,0 l/m 4,1 km/h (1 Bft) NO 39 3 min 490 W/m 15,9 C 18,7 C 9,7 km/h (2 Bft)
20.05.2019 12:54 18,8 C 83 % 1005,3 hPa 0,0 l/m 3,7 km/h (1 Bft) O-NO 74 3 min 462 W/m 15,8 C 18,8 C 8,0 km/h (2 Bft)
20.05.2019 12:57 18,9 C 83 % 1005,3 hPa 0,0 l/m 4,7 km/h (1 Bft) S-SW 207 3 min 536 W/m 15,9 C 18,9 C 8,0 km/h (2 Bft)
20.05.2019 13:00 18,9 C 83 % 1005,2 hPa 0,0 l/m 3,4 km/h (1 Bft) O-NO 65 3 min 529 W/m 15,9 C 18,9 C 8,0 km/h (2 Bft)
20.05.2019 13:03 19,1 C 82 % 1005,3 hPa 0,0 l/m 3,3 km/h (1 Bft) S-SO 149 3 min 529 W/m 16,0 C 19,1 C 6,4 km/h (2 Bft)
20.05.2019 13:06 19,2 C 82 % 1005,2 hPa 0,0 l/m 4,0 km/h (1 Bft) N-NO 29 3 min 526 W/m 16,0 C 19,2 C 8,0 km/h (2 Bft)
20.05.2019 13:09 19,3 C 81 % 1005,2 hPa 0,0 l/m 3,1 km/h (1 Bft) SO 130 3 min 563 W/m 16,0 C 19,3 C 6,4 km/h (2 Bft)
20.05.2019 13:12 19,4 C 80 % 1005,2 hPa 0,0 l/m 4,2 km/h (1 Bft) NO 52 3 min 506 W/m 15,9 C 19,4 C 9,7 km/h (2 Bft)
20.05.2019 13:15 19,6 C 81 % 1005,3 hPa 0,0 l/m 2,6 km/h (1 Bft) NO 52 3 min 512 W/m 16,2 C 19,6 C 4,8 km/h (1 Bft)
20.05.2019 13:18 19,8 C 80 % 1005,3 hPa 0,0 l/m 2,0 km/h (1 Bft) NO 52 3 min 461 W/m 16,2 C 19,8 C 4,8 km/h (1 Bft)
20.05.2019 13:21 19,6 C 78 % 1005,3 hPa 0,0 l/m 1,9 km/h (1 Bft) NO 52 0 min 390 W/m 15,7 C 19,6 C 6,4 km/h (2 Bft)
20.05.2019 13:24 19,7 C 81 % 1005,3 hPa 0,0 l/m 1,6 km/h (1 Bft) NO 52 0 min 390 W/m 16,3 C 19,7 C 3,2 km/h (1 Bft)
20.05.2019 13:27 19,9 C 80 % 1005,3 hPa 0,0 l/m 4,0 km/h (1 Bft) N-NW 337 0 min 431 W/m 16,3 C 19,9 C 8,0 km/h (2 Bft)
20.05.2019 13:30 20,0 C 78 % 1005,4 hPa 0,0 l/m 7,6 km/h (2 Bft) N-NW 333 0 min 408 W/m 16,0 C 19,5 C 12,9 km/h (3 Bft)
20.05.2019 13:33 19,8 C 79 % 1005,4 hPa 0,0 l/m 4,2 km/h (1 Bft) N-NW 333 3 min 522 W/m 16,0 C 19,8 C 8,0 km/h (2 Bft)
20.05.2019 13:36 19,6 C 78 % 1005,4 hPa 0,0 l/m 3,9 km/h (1 Bft) N-NW 333 3 min 526 W/m 15,7 C 19,6 C 8,0 km/h (2 Bft)
20.05.2019 13:39 19,6 C 81 % 1005,4 hPa 0,0 l/m 4,2 km/h (1 Bft) N-NW 333 3 min 455 W/m 16,2 C 19,6 C 8,0 km/h (2 Bft)
20.05.2019 13:42 19,8 C 79 % 1005,5 hPa 0,0 l/m 6,6 km/h (2 Bft) NW 325 0 min 432 W/m 16,0 C 19,7 C 9,7 km/h (2 Bft)
20.05.2019 13:45 19,8 C 78 % 1005,5 hPa 0,0 l/m 4,5 km/h (1 Bft) NW 325 3 min 480 W/m 15,8 C 19,8 C 9,7 km/h (2 Bft)
20.05.2019 13:48 20,1 C 79 % 1005,4 hPa 0,0 l/m 5,5 km/h (2 Bft) NW 322 3 min 675 W/m 16,3 C 20,1 C 12,9 km/h (3 Bft)
20.05.2019 13:51 20,1 C 78 % 1005,4 hPa 0,0 l/m 2,8 km/h (1 Bft) NW 323 3 min 675 W/m 16,1 C 20,1 C 6,4 km/h (2 Bft)
20.05.2019 13:54 20,1 C 77 % 1005,4 hPa 0,0 l/m 2,3 km/h (1 Bft) NW 323 3 min 789 W/m 15,9 C 20,1 C 6,4 km/h (2 Bft)
20.05.2019 13:57 20,3 C 78 % 1005,4 hPa 0,0 l/m 5,2 km/h (1 Bft) NW 323 3 min 777 W/m 16,3 C 20,3 C 9,7 km/h (2 Bft)
20.05.2019 14:00 20,8 C 76 % 1005,4 hPa 0,0 l/m 6,6 km/h (2 Bft) NW 323 3 min 798 W/m 16,4 C 20,7 C 9,7 km/h (2 Bft)
20.05.2019 14:03 21,2 C 75 % 1005,4 hPa 0,0 l/m 6,2 km/h (2 Bft) NW 323 3 min 763 W/m 16,6 C 21,2 C 9,7 km/h (2 Bft)
20.05.2019 14:06 21,0 C 74 % 1005,3 hPa 0,0 l/m 6,1 km/h (2 Bft) N-NW 332 3 min 784 W/m 16,2 C 21,0 C 12,9 km/h (3 Bft)
20.05.2019 14:09 20,9 C 74 % 1005,4 hPa 0,0 l/m 9,8 km/h (2 Bft) NW 323 3 min 773 W/m 16,1 C 19,7 C 14,5 km/h (3 Bft)
20.05.2019 14:12 20,9 C 74 % 1005,4 hPa 0,0 l/m 8,3 km/h (2 Bft) NW 326 3 min 768 W/m 16,1 C 20,2 C 16,1 km/h (3 Bft)
20.05.2019 14:15 20,3 C 76 % 1005,4 hPa 0,0 l/m 5,9 km/h (2 Bft) NW 326 3 min 788 W/m 15,9 C 20,3 C 9,7 km/h (2 Bft)
20.05.2019 14:18 20,4 C 76 % 1005,4 hPa 0,0 l/m 6,6 km/h (2 Bft) NW 325 3 min 761 W/m 16,0 C 20,3 C 9,7 km/h (2 Bft)
20.05.2019 14:21 20,6 C 75 % 1005,4 hPa 0,0 l/m 6,9 km/h (2 Bft) NW 325 3 min 772 W/m 16,0 C 20,4 C 9,7 km/h (2 Bft)
20.05.2019 14:24 20,4 C 75 % 1005,3 hPa 0,0 l/m 8,4 km/h (2 Bft) N-NW 327 3 min 770 W/m 15,8 C 19,6 C 14,5 km/h (3 Bft)
20.05.2019 14:27 20,3 C 76 % 1005,4 hPa 0,0 l/m 10,3 km/h (2 Bft) NW 322 3 min 777 W/m 15,9 C 18,9 C 16,1 km/h (3 Bft)
20.05.2019 14:30 20,1 C 76 % 1005,4 hPa 0,0 l/m 8,4 km/h (2 Bft) NW 323 3 min 749 W/m 15,7 C 19,3 C 14,5 km/h (3 Bft)
20.05.2019 14:33 19,9 C 77 % 1005,3 hPa 0,0 l/m 9,8 km/h (2 Bft) NW 323 3 min 719 W/m 15,7 C 18,6 C 14,5 km/h (3 Bft)
20.05.2019 14:36 19,8 C 76 % 1005,3 hPa 0,0 l/m 7,0 km/h (2 Bft) NW 321 3 min 705 W/m 15,4 C 19,6 C 14,5 km/h (3 Bft)
20.05.2019 14:39 19,9 C 78 % 1005,3 hPa 0,0 l/m 6,9 km/h (2 Bft) NW 322 3 min 712 W/m 15,9 C 19,7 C 12,9 km/h (3 Bft)
20.05.2019 14:42 19,9 C 77 % 1005,2 hPa 0,0 l/m 6,7 km/h (2 Bft) NW 323 3 min 694 W/m 15,7 C 19,8 C 12,9 km/h (3 Bft)
20.05.2019 14:45 19,9 C 77 % 1005,2 hPa 0,0 l/m 5,6 km/h (2 Bft) NW 323 3 min 735 W/m 15,7 C 19,9 C 9,7 km/h (2 Bft)
20.05.2019 14:48 19,7 C 78 % 1005,2 hPa 0,0 l/m 6,2 km/h (2 Bft) NW 323 3 min 761 W/m 15,8 C 19,7 C 9,7 km/h (2 Bft)
20.05.2019 14:51 19,4 C 79 % 1005,3 hPa 0,0 l/m 5,2 km/h (1 Bft) NW 323 3 min 745 W/m 15,7 C 19,4 C 9,7 km/h (2 Bft)
20.05.2019 14:54 19,9 C 78 % 1005,2 hPa 0,0 l/m 7,6 km/h (2 Bft) NW 323 3 min 742 W/m 15,9 C 19,4 C 14,5 km/h (3 Bft)
20.05.2019 14:57 20,3 C 76 % 1005,2 hPa 0,0 l/m 6,4 km/h (2 Bft) NW 324 3 min 749 W/m 15,9 C 20,3 C 9,7 km/h (2 Bft)
20.05.2019 15:00 20,2 C 75 % 1005,2 hPa 0,0 l/m 7,7 km/h (2 Bft) NW 323 3 min 744 W/m 15,6 C 19,7 C 12,9 km/h (3 Bft)
20.05.2019 15:03 20,0 C 76 % 1005,2 hPa 0,0 l/m 6,6 km/h (2 Bft) NW 323 3 min 745 W/m 15,6 C 19,9 C 14,5 km/h (3 Bft)
20.05.2019 15:06 19,9 C 77 % 1005,2 hPa 0,0 l/m 6,3 km/h (2 Bft) NW 323 3 min 740 W/m 15,7 C 19,9 C 9,7 km/h (2 Bft)
20.05.2019 15:09 19,9 C 77 % 1005,2 hPa 0,0 l/m 5,6 km/h (2 Bft) NW 323 3 min 733 W/m 15,7 C 19,9 C 9,7 km/h (2 Bft)
20.05.2019 15:12 19,9 C 76 % 1005,2 hPa 0,0 l/m 6,9 km/h (2 Bft) NW 323 3 min 731 W/m 15,5 C 19,7 C 9,7 km/h (2 Bft)
20.05.2019 15:15 20,3 C 77 % 1005,2 hPa 0,0 l/m 6,8 km/h (2 Bft) NW 323 3 min 747 W/m 16,1 C 20,1 C 8,0 km/h (2 Bft)
20.05.2019 15:18 20,8 C 75 % 1005,2 hPa 0,0 l/m 6,1 km/h (2 Bft) NW 323 3 min 740 W/m 16,2 C 20,8 C 9,7 km/h (2 Bft)
20.05.2019 15:21 21,0 C 75 % 1005,2 hPa 0,0 l/m 5,1 km/h (1 Bft) NW 323 3 min 722 W/m 16,4 C 21,0 C 8,0 km/h (2 Bft)
20.05.2019 15:24 21,2 C 74 % 1005,1 hPa 0,0 l/m 6,4 km/h (2 Bft) NW 323 3 min 722 W/m 16,4 C 21,2 C 9,7 km/h (2 Bft)
20.05.2019 15:27 21,4 C 72 % 1005,2 hPa 0,0 l/m 8,6 km/h (2 Bft) NW 321 3 min 675 W/m 16,1 C 20,6 C 14,5 km/h (3 Bft)
20.05.2019 15:30 21,0 C 73 % 1005,2 hPa 0,0 l/m 8,3 km/h (2 Bft) NW 318 3 min 703 W/m 16,0 C 20,3 C 14,5 km/h (3 Bft)
20.05.2019 15:33 21,1 C 73 % 1005,2 hPa 0,0 l/m 6,1 km/h (2 Bft) N-NW 336 3 min 705 W/m 16,1 C 21,1 C 12,9 km/h (3 Bft)
20.05.2019 15:36 20,4 C 73 % 1005,2 hPa 0,0 l/m 9,5 km/h (2 Bft) N 355 3 min 705 W/m 15,4 C 19,2 C 16,1 km/h (3 Bft)
20.05.2019 15:39 19,9 C 76 % 1005,1 hPa 0,0 l/m 10,6 km/h (2 Bft) N-NW 332 3 min 703 W/m 15,5 C 18,3 C 17,7 km/h (3 Bft)
20.05.2019 15:42 20,4 C 76 % 1005,1 hPa 0,0 l/m 9,2 km/h (2 Bft) N-NW 328 3 min 687 W/m 16,0 C 19,3 C 16,1 km/h (3 Bft)
20.05.2019 15:45 20,8 C 74 % 1005,1 hPa 0,0 l/m 9,0 km/h (2 Bft) NW 324 3 min 686 W/m 16,0 C 19,8 C 16,1 km/h (3 Bft)
20.05.2019 15:48 21,0 C 74 % 1005,0 hPa 0,0 l/m 9,3 km/h (2 Bft) NW 321 3 min 675 W/m 16,2 C 20,0 C 17,7 km/h (3 Bft)
20.05.2019 15:51 21,1 C 73 % 1005,0 hPa 0,0 l/m 10,3 km/h (2 Bft) N-NW 327 3 min 671 W/m 16,1 C 19,8 C 16,1 km/h (3 Bft)
20.05.2019 15:54 20,9 C 73 % 1005,0 hPa 0,0 l/m 10,3 km/h (2 Bft) N-NW 328 3 min 670 W/m 15,9 C 19,5 C 16,1 km/h (3 Bft)
20.05.2019 15:57 20,7 C 73 % 1005,0 hPa 0,0 l/m 12,7 km/h (3 Bft) N-NW 338 3 min 659 W/m 15,7 C 18,7 C 17,7 km/h (3 Bft)
20.05.2019 16:00 20,4 C 74 % 1005,0 hPa 0,0 l/m 10,8 km/h (2 Bft) N-NW 343 3 min 657 W/m 15,6 C 18,8 C 19,3 km/h (3 Bft)
20.05.2019 16:03 20,4 C 75 % 1004,9 hPa 0,0 l/m 11,2 km/h (2 Bft) NW 323 3 min 647 W/m 15,8 C 18,7 C 17,7 km/h (3 Bft)
20.05.2019 16:06 20,7 C 75 % 1004,8 hPa 0,0 l/m 9,0 km/h (2 Bft) N-NW 331 3 min 643 W/m 16,1 C 19,7 C 17,7 km/h (3 Bft)
20.05.2019 16:09 20,7 C 74 % 1004,8 hPa 0,0 l/m 8,2 km/h (2 Bft) N-NW 341 3 min 635 W/m 15,9 C 20,0 C 14,5 km/h (3 Bft)
20.05.2019 16:12 20,7 C 75 % 1004,8 hPa 0,0 l/m 7,1 km/h (2 Bft) NW 324 3 min 619 W/m 16,1 C 20,4 C 14,5 km/h (3 Bft)
20.05.2019 16:15 21,1 C 74 % 1004,8 hPa 0,0 l/m 6,2 km/h (2 Bft) N-NW 336 3 min 621 W/m 16,3 C 21,1 C 12,9 km/h (3 Bft)
20.05.2019 16:18 20,8 C 73 % 1004,8 hPa 0,0 l/m 9,5 km/h (2 Bft) N-NW 327 3 min 612 W/m 15,8 C 19,7 C 17,7 km/h (3 Bft)
20.05.2019 16:21 20,7 C 74 % 1004,8 hPa 0,0 l/m 11,0 km/h (2 Bft) N-NW 338 3 min 608 W/m 15,9 C 19,1 C 17,7 km/h (3 Bft)
20.05.2019 16:24 20,3 C 74 % 1004,8 hPa 0,0 l/m 13,7 km/h (3 Bft) N 355 3 min 601 W/m 15,5 C 17,9 C 20,9 km/h (4 Bft)
20.05.2019 16:27 20,0 C 76 % 1004,8 hPa 0,0 l/m 11,8 km/h (2 Bft) N-NW 336 3 min 598 W/m 15,6 C 18,1 C 17,7 km/h (3 Bft)
20.05.2019 16:30 20,0 C 77 % 1004,8 hPa 0,0 l/m 10,8 km/h (2 Bft) N 349 3 min 594 W/m 15,8 C 18,4 C 16,1 km/h (3 Bft)
20.05.2019 16:33 20,3 C 76 % 1004,7 hPa 0,0 l/m 11,1 km/h (2 Bft) N-NW 344 3 min 599 W/m 15,9 C 18,6 C 17,7 km/h (3 Bft)
20.05.2019 16:36 20,5 C 75 % 1004,7 hPa 0,0 l/m 11,5 km/h (2 Bft) N 355 3 min 594 W/m 15,9 C 18,7 C 20,9 km/h (4 Bft)
20.05.2019 16:39 20,7 C 75 % 1004,7 hPa 0,0 l/m 11,4 km/h (2 Bft) N 355 3 min 554 W/m 16,1 C 19,0 C 19,3 km/h (3 Bft)
20.05.2019 16:42 20,6 C 75 % 1004,6 hPa 0,0 l/m 11,2 km/h (2 Bft) NW 319 3 min 408 W/m 16,0 C 18,9 C 19,3 km/h (3 Bft)
20.05.2019 16:45 20,6 C 76 % 1004,6 hPa 0,0 l/m 9,9 km/h (2 Bft) N-NW 338 3 min 415 W/m 16,2 C 19,3 C 17,7 km/h (3 Bft)
20.05.2019 16:48 20,6 C 75 % 1004,5 hPa 0,0 l/m 9,9 km/h (2 Bft) NW 323 3 min 422 W/m 16,0 C 19,3 C 16,1 km/h (3 Bft)
20.05.2019 16:51 20,5 C 75 % 1004,5 hPa 0,0 l/m 8,5 km/h (2 Bft) N-NW 342 3 min 492 W/m 15,9 C 19,7 C 16,1 km/h (3 Bft)
20.05.2019 16:54 20,2 C 75 % 1004,6 hPa 0,0 l/m 12,8 km/h (3 Bft) NW 321 3 min 543 W/m 15,6 C 18,0 C 24,1 km/h (4 Bft)
20.05.2019 16:57 19,6 C 77 % 1004,5 hPa 0,0 l/m 10,7 km/h (2 Bft) N 5 3 min 540 W/m 15,5 C 18,0 C 19,3 km/h (3 Bft)
20.05.2019 17:00 19,3 C 79 % 1004,5 hPa 0,0 l/m 10,8 km/h (2 Bft) N-NW 335 3 min 527 W/m 15,6 C 17,6 C 19,3 km/h (3 Bft)
20.05.2019 17:03 19,1 C 78 % 1004,4 hPa 0,0 l/m 11,3 km/h (2 Bft) N 355 3 min 526 W/m 15,2 C 17,2 C 20,9 km/h (4 Bft)
20.05.2019 17:06 19,2 C 79 % 1004,4 hPa 0,0 l/m 10,9 km/h (2 Bft) N-NW 340 3 min 515 W/m 15,5 C 17,5 C 17,7 km/h (3 Bft)
20.05.2019 17:09 19,1 C 79 % 1004,4 hPa 0,0 l/m 12,7 km/h (3 Bft) N-NO 13 3 min 513 W/m 15,4 C 16,8 C 20,9 km/h (4 Bft)
20.05.2019 17:12 19,0 C 79 % 1004,4 hPa 0,0 l/m 11,2 km/h (2 Bft) N-NW 328 3 min 506 W/m 15,3 C 17,1 C 20,9 km/h (4 Bft)
20.05.2019 17:15 19,2 C 79 % 1004,4 hPa 0,0 l/m 11,2 km/h (2 Bft) N 351 3 min 496 W/m 15,5 C 17,4 C 22,5 km/h (4 Bft)
20.05.2019 17:18 19,1 C 78 % 1004,4 hPa 0,0 l/m 12,7 km/h (3 Bft) N 355 3 min 497 W/m 15,2 C 16,8 C 22,5 km/h (4 Bft)
20.05.2019 17:21 19,0 C 79 % 1004,4 hPa 0,0 l/m 11,5 km/h (2 Bft) NW 322 3 min 489 W/m 15,3 C 17,0 C 20,9 km/h (4 Bft)
20.05.2019 17:24 19,2 C 79 % 1004,4 hPa 0,0 l/m 12,1 km/h (2 Bft) N-NW 338 3 min 482 W/m 15,5 C 17,1 C 20,9 km/h (4 Bft)
20.05.2019 17:27 19,3 C 79 % 1004,3 hPa 0,0 l/m 11,6 km/h (2 Bft) N 355 3 min 478 W/m 15,6 C 17,3 C 22,5 km/h (4 Bft)
20.05.2019 17:30 19,3 C 78 % 1004,3 hPa 0,0 l/m 11,2 km/h (2 Bft) N-NW 336 3 min 464 W/m 15,4 C 17,5 C 19,3 km/h (3 Bft)
20.05.2019 17:33 19,2 C 78 % 1004,4 hPa 0,0 l/m 11,7 km/h (2 Bft) N-NW 332 3 min 450 W/m 15,3 C 17,2 C 16,1 km/h (3 Bft)
20.05.2019 17:36 19,2 C 78 % 1004,4 hPa 0,0 l/m 11,8 km/h (2 Bft) N 355 3 min 431 W/m 15,3 C 17,2 C 19,3 km/h (3 Bft)
20.05.2019 17:39 19,0 C 79 % 1004,5 hPa 0,0 l/m 9,6 km/h (2 Bft) NW 325 3 min 425 W/m 15,3 C 17,7 C 16,1 km/h (3 Bft)
20.05.2019 17:42 18,8 C 79 % 1004,4 hPa 0,0 l/m 12,7 km/h (3 Bft) NW 311 3 min 309 W/m 15,1 C 16,4 C 22,5 km/h (4 Bft)
20.05.2019 17:45 18,8 C 80 % 1004,4 hPa 0,0 l/m 11,5 km/h (2 Bft) N-NW 333 3 min 403 W/m 15,3 C 16,8 C 19,3 km/h (3 Bft)
20.05.2019 17:48 18,7 C 79 % 1004,5 hPa 0,0 l/m 11,9 km/h (2 Bft) N-NW 336 3 min 415 W/m 15,0 C 16,6 C 20,9 km/h (4 Bft)
20.05.2019 17:51 18,7 C 80 % 1004,5 hPa 0,0 l/m 11,2 km/h (2 Bft) N-NW 327 3 min 406 W/m 15,2 C 16,8 C 17,7 km/h (3 Bft)
20.05.2019 17:54 18,8 C 80 % 1004,6 hPa 0,0 l/m 12,7 km/h (3 Bft) NW 315 3 min 417 W/m 15,3 C 16,4 C 19,3 km/h (3 Bft)
20.05.2019 17:57 18,8 C 80 % 1004,5 hPa 0,0 l/m 10,4 km/h (2 Bft) NW 326 3 min 420 W/m 15,3 C 17,2 C 16,1 km/h (3 Bft)
20.05.2019 18:00 18,9 C 79 % 1004,6 hPa 0,0 l/m 11,7 km/h (2 Bft) N-NW 333 3 min 397 W/m 15,2 C 16,9 C 19,3 km/h (3 Bft)
20.05.2019 18:03 18,8 C 80 % 1004,5 hPa 0,0 l/m 11,8 km/h (2 Bft) NW 316 3 min 348 W/m 15,3 C 16,7 C 20,9 km/h (4 Bft)
20.05.2019 18:06 18,7 C 80 % 1004,5 hPa 0,0 l/m 12,5 km/h (2 Bft) N 350 3 min 283 W/m 15,2 C 16,4 C 20,9 km/h (4 Bft)
20.05.2019 18:09 18,6 C 80 % 1004,5 hPa 0,0 l/m 9,4 km/h (2 Bft) N-NW 343 3 min 276 W/m 15,1 C 17,3 C 19,3 km/h (3 Bft)
20.05.2019 18:12 18,3 C 80 % 1004,5 hPa 0,0 l/m 9,9 km/h (2 Bft) N 5 3 min 315 W/m 14,8 C 16,8 C 17,7 km/h (3 Bft)
20.05.2019 18:15 18,0 C 82 % 1004,5 hPa 0,0 l/m 13,6 km/h (3 Bft) N-NW 327 3 min 304 W/m 14,9 C 15,2 C 20,9 km/h (4 Bft)
20.05.2019 18:18 17,9 C 81 % 1004,5 hPa 0,0 l/m 13,0 km/h (3 Bft) N 360 3 min 299 W/m 14,6 C 15,3 C 20,9 km/h (4 Bft)
20.05.2019 18:21 17,8 C 82 % 1004,5 hPa 0,0 l/m 15,0 km/h (3 Bft) N-NO 12 3 min 332 W/m 14,7 C 14,6 C 22,5 km/h (4 Bft)
20.05.2019 18:24 17,9 C 82 % 1004,4 hPa 0,0 l/m 12,5 km/h (2 Bft) N-NW 339 3 min 346 W/m 14,8 C 15,4 C 19,3 km/h (3 Bft)
20.05.2019 18:27 17,8 C 82 % 1004,5 hPa 0,0 l/m 15,1 km/h (3 Bft) N 360 3 min 237 W/m 14,7 C 14,6 C 24,1 km/h (4 Bft)
20.05.2019 18:30 17,8 C 83 % 1004,5 hPa 0,0 l/m 14,8 km/h (3 Bft) NW 319 0 min 100 W/m 14,9 C 14,6 C 27,4 km/h (5 Bft)
20.05.2019 18:33 17,8 C 82 % 1004,6 hPa 0,0 l/m 13,7 km/h (3 Bft) N-NW 344 0 min 88 W/m 14,7 C 15,0 C 24,1 km/h (4 Bft)
20.05.2019 18:36 17,8 C 83 % 1004,6 hPa 0,0 l/m 11,9 km/h (2 Bft) N 355 0 min 67 W/m 14,9 C 15,5 C 20,9 km/h (4 Bft)
20.05.2019 18:39 17,7 C 82 % 1004,6 hPa 0,0 l/m 11,8 km/h (2 Bft) N-NW 332 0 min 60 W/m 14,6 C 15,4 C 22,5 km/h (4 Bft)
20.05.2019 18:42 17,6 C 83 % 1004,7 hPa 0,0 l/m 12,5 km/h (2 Bft) NW 311 0 min 77 W/m 14,7 C 15,1 C 22,5 km/h (4 Bft)
20.05.2019 18:45 17,6 C 84 % 1004,7 hPa 0,0 l/m 11,2 km/h (2 Bft) N 360 0 min 79 W/m 14,9 C 15,5 C 19,3 km/h (3 Bft)
20.05.2019 18:48 17,6 C 84 % 1004,7 hPa 0,0 l/m 9,4 km/h (2 Bft) N-NW 339 0 min 84 W/m 14,9 C 16,2 C 19,3 km/h (3 Bft)
20.05.2019 18:51 17,6 C 84 % 1004,7 hPa 0,0 l/m 14,1 km/h (3 Bft) N 360 0 min 77 W/m 14,9 C 14,6 C 22,5 km/h (4 Bft)
20.05.2019 18:54 17,5 C 84 % 1004,8 hPa 0,0 l/m 16,9 km/h (3 Bft) NW 319 0 min 69 W/m 14,8 C 13,7 C 25,7 km/h (4 Bft)
20.05.2019 18:57 17,4 C 84 % 1004,8 hPa 0,0 l/m 12,1 km/h (2 Bft) N-NW 329 0 min 81 W/m 14,7 C 15,0 C 24,1 km/h (4 Bft)
20.05.2019 19:00 17,4 C 84 % 1004,8 hPa 0,0 l/m 15,0 km/h (3 Bft) NW 326 0 min 69 W/m 14,7 C 14,1 C 22,5 km/h (4 Bft)
20.05.2019 19:03 17,3 C 84 % 1005,0 hPa 0,0 l/m 14,2 km/h (3 Bft) NW 324 0 min 69 W/m 14,6 C 14,2 C 27,4 km/h (5 Bft)
20.05.2019 19:06 17,2 C 84 % 1004,9 hPa 0,0 l/m 12,7 km/h (3 Bft) N-NW 348 0 min 65 W/m 14,5 C 14,6 C 22,5 km/h (4 Bft)
20.05.2019 19:09 17,2 C 85 % 1005,0 hPa 0,0 l/m 12,7 km/h (3 Bft) N-NW 341 0 min 63 W/m 14,7 C 14,6 C 24,1 km/h (4 Bft)
20.05.2019 19:12 17,1 C 84 % 1005,0 hPa 0,0 l/m 13,1 km/h (3 Bft) N 355 0 min 65 W/m 14,4 C 14,3 C 27,4 km/h (5 Bft)
20.05.2019 19:15 16,9 C 85 % 1005,0 hPa 0,0 l/m 10,6 km/h (2 Bft) NW 326 0 min 69 W/m 14,4 C 15,0 C 20,9 km/h (4 Bft)
20.05.2019 19:18 16,9 C 85 % 1005,1 hPa 0,0 l/m 9,4 km/h (2 Bft) N 5 0 min 76 W/m 14,4 C 15,5 C 20,9 km/h (4 Bft)
20.05.2019 19:21 16,9 C 86 % 1005,0 hPa 0,0 l/m 14,2 km/h (3 Bft) N 350 0 min 83 W/m 14,5 C 13,7 C 22,5 km/h (4 Bft)
20.05.2019 19:24 16,9 C 86 % 1004,9 hPa 0,0 l/m 9,9 km/h (2 Bft) N-NW 335 0 min 84 W/m 14,5 C 15,3 C 20,9 km/h (4 Bft)
20.05.2019 19:27 16,9 C 86 % 1004,9 hPa 0,0 l/m 12,4 km/h (2 Bft) N 350 0 min 81 W/m 14,5 C 14,3 C 22,5 km/h (4 Bft)
20.05.2019 19:30 16,9 C 86 % 1004,9 hPa 0,0 l/m 11,6 km/h (2 Bft) N 360 0 min 76 W/m 14,5 C 14,6 C 24,1 km/h (4 Bft)
20.05.2019 19:33 16,9 C 86 % 1004,8 hPa 0,0 l/m 11,5 km/h (2 Bft) NW 315 0 min 63 W/m 14,5 C 14,6 C 24,1 km/h (4 Bft)
20.05.2019 19:36 16,9 C 86 % 1004,8 hPa 0,0 l/m 9,1 km/h (2 Bft) N-NW 334 0 min 62 W/m 14,5 C 15,6 C 20,9 km/h (4 Bft)
20.05.2019 19:39 16,9 C 86 % 1004,9 hPa 0,0 l/m 12,1 km/h (2 Bft) N 360 0 min 74 W/m 14,5 C 14,4 C 20,9 km/h (4 Bft)
20.05.2019 19:42 16,8 C 86 % 1004,8 hPa 0,0 l/m 14,1 km/h (3 Bft) N 350 0 min 69 W/m 14,4 C 13,6 C 20,9 km/h (4 Bft)
20.05.2019 19:45 16,7 C 86 % 1004,9 hPa 0,0 l/m 15,2 km/h (3 Bft) N 350 0 min 56 W/m 14,3 C 13,2 C 24,1 km/h (4 Bft)
20.05.2019 19:48 16,6 C 86 % 1004,8 hPa 0,0 l/m 13,2 km/h (3 Bft) N 9 0 min 56 W/m 14,2 C 13,7 C 22,5 km/h (4 Bft)
20.05.2019 19:54 16,4 C 87 % 1004,8 hPa 0,0 l/m 11,3 km/h (2 Bft) N-NW 346 0 min 58 W/m 14,2 C 14,1 C 19,3 km/h (3 Bft)
20.05.2019 20:00 16,5 C 87 % 1004,8 hPa 0,0 l/m 11,8 km/h (2 Bft) N 355 0 min 54 W/m 14,3 C 14,1 C 24,1 km/h (4 Bft)
20.05.2019 20:03 16,5 C 88 % 1004,9 hPa 0,0 l/m 10,1 km/h (2 Bft) N-NW 336 0 min 51 W/m 14,5 C 14,7 C 19,3 km/h (3 Bft)
20.05.2019 20:06 16,5 C 88 % 1004,9 hPa 0,0 l/m 8,6 km/h (2 Bft) N 355 0 min 49 W/m 14,5 C 15,4 C 19,3 km/h (3 Bft)
20.05.2019 20:09 16,5 C 88 % 1004,9 hPa 0,0 l/m 10,2 km/h (2 Bft) N-NW 341 0 min 46 W/m 14,5 C 14,7 C 19,3 km/h (3 Bft)
20.05.2019 20:12 16,4 C 88 % 1004,9 hPa 0,0 l/m 11,7 km/h (2 Bft) NW 325 0 min 44 W/m 14,4 C 14,0 C 17,7 km/h (3 Bft)
20.05.2019 20:15 16,4 C 88 % 1004,9 hPa 0,0 l/m 10,9 km/h (2 Bft) NW 325 0 min 40 W/m 14,4 C 14,3 C 17,7 km/h (3 Bft)
20.05.2019 20:18 16,3 C 88 % 1004,9 hPa 0,0 l/m 9,3 km/h (2 Bft) NW 321 0 min 39 W/m 14,3 C 14,9 C 17,7 km/h (3 Bft)
20.05.2019 20:21 16,3 C 88 % 1004,9 hPa 0,0 l/m 8,6 km/h (2 Bft) N-NO 14 0 min 37 W/m 14,3 C 15,2 C 19,3 km/h (3 Bft)
20.05.2019 20:24 16,3 C 88 % 1004,9 hPa 0,0 l/m 9,5 km/h (2 Bft) NW 318 0 min 33 W/m 14,3 C 14,8 C 19,3 km/h (3 Bft)
20.05.2019 20:27 16,2 C 88 % 1004,9 hPa 0,0 l/m 11,4 km/h (2 Bft) NW 323 0 min 32 W/m 14,2 C 13,9 C 19,3 km/h (3 Bft)
20.05.2019 20:30 16,1 C 88 % 1004,9 hPa 0,0 l/m 8,2 km/h (2 Bft) N-NW 336 0 min 32 W/m 14,1 C 15,2 C 14,5 km/h (3 Bft)
20.05.2019 20:33 16,1 C 88 % 1004,9 hPa 0,0 l/m 8,3 km/h (2 Bft) NW 325 0 min 30 W/m 14,1 C 15,1 C 16,1 km/h (3 Bft)
20.05.2019 20:36 16,0 C 88 % 1004,9 hPa 0,0 l/m 9,3 km/h (2 Bft) NW 319 0 min 28 W/m 14,0 C 14,5 C 19,3 km/h (3 Bft)
20.05.2019 20:39 15,9 C 88 % 1005,0 hPa 0,0 l/m 9,3 km/h (2 Bft) N-NW 329 0 min 25 W/m 13,9 C 14,4 C 16,1 km/h (3 Bft)
20.05.2019 20:42 15,8 C 88 % 1005,0 hPa 0,0 l/m 8,7 km/h (2 Bft) NW 322 0 min 23 W/m 13,8 C 14,6 C 16,1 km/h (3 Bft)
20.05.2019 20:45 15,8 C 89 % 1005,0 hPa 0,0 l/m 8,5 km/h (2 Bft) NW 326 0 min 23 W/m 14,0 C 14,7 C 17,7 km/h (3 Bft)
20.05.2019 20:48 15,7 C 89 % 1005,1 hPa 0,0 l/m 10,3 km/h (2 Bft) N 351 0 min 23 W/m 13,9 C 13,8 C 19,3 km/h (3 Bft)
20.05.2019 20:51 15,7 C 89 % 1005,0 hPa 0,0 l/m 12,9 km/h (3 Bft) N-NW 341 0 min 21 W/m 13,9 C 12,7 C 22,5 km/h (4 Bft)
20.05.2019 20:54 15,7 C 89 % 1005,0 hPa 0,0 l/m 7,0 km/h (2 Bft) N-NW 348 0 min 21 W/m 13,9 C 15,4 C 16,1 km/h (3 Bft)
20.05.2019 20:57 15,6 C 89 % 1005,1 hPa 0,0 l/m 9,8 km/h (2 Bft) N-NW 344 0 min 19 W/m 13,8 C 13,9 C 19,3 km/h (3 Bft)
20.05.2019 21:00 15,6 C 89 % 1005,1 hPa 0,0 l/m 7,7 km/h (2 Bft) N-NW 343 0 min 19 W/m 13,8 C 14,9 C 16,1 km/h (3 Bft)
20.05.2019 21:03 15,6 C 89 % 1005,0 hPa 0,0 l/m 9,4 km/h (2 Bft) N-NW 345 0 min 19 W/m 13,8 C 14,1 C 19,3 km/h (3 Bft)
20.05.2019 21:06 15,6 C 89 % 1005,1 hPa 0,0 l/m 4,6 km/h (1 Bft) N-NW 346 3 min 18 W/m 13,8 C 15,6 C 9,7 km/h (2 Bft)
20.05.2019 21:09 15,6 C 89 % 1005,2 hPa 0,0 l/m 8,3 km/h (2 Bft) N-NW 335 3 min 16 W/m 13,8 C 14,6 C 19,3 km/h (3 Bft)
20.05.2019 21:12 15,6 C 89 % 1005,2 hPa 0,0 l/m 8,7 km/h (2 Bft) N-NW 342 3 min 16 W/m 13,8 C 14,4 C 16,1 km/h (3 Bft)
20.05.2019 21:15 15,6 C 89 % 1005,2 hPa 0,0 l/m 7,7 km/h (2 Bft) N-NW 336 0 min 14 W/m 13,8 C 14,9 C 19,3 km/h (3 Bft)
20.05.2019 21:18 15,5 C 89 % 1005,2 hPa 0,0 l/m 9,0 km/h (2 Bft) N-NW 338 0 min 12 W/m 13,7 C 14,1 C 19,3 km/h (3 Bft)
20.05.2019 21:21 15,4 C 89 % 1005,4 hPa 0,0 l/m 8,5 km/h (2 Bft) N-NW 347 0 min 9 W/m 13,6 C 14,3 C 17,7 km/h (3 Bft)
20.05.2019 21:24 15,4 C 89 % 1005,4 hPa 0,0 l/m 10,2 km/h (2 Bft) NW 319 0 min 7 W/m 13,6 C 13,5 C 19,3 km/h (3 Bft)
20.05.2019 21:27 15,3 C 89 % 1005,4 hPa 0,0 l/m 9,6 km/h (2 Bft) N 350 0 min 7 W/m 13,5 C 13,6 C 19,3 km/h (3 Bft)
20.05.2019 21:30 15,3 C 89 % 1005,4 hPa 0,0 l/m 8,2 km/h (2 Bft) N-NW 333 0 min 7 W/m 13,5 C 14,3 C 17,7 km/h (3 Bft)
20.05.2019 21:33 15,2 C 89 % 1005,4 hPa 0,0 l/m 7,1 km/h (2 Bft) N 355 0 min 5 W/m 13,4 C 14,8 C 14,5 km/h (3 Bft)
20.05.2019 21:36 15,1 C 89 % 1005,5 hPa 0,0 l/m 6,1 km/h (2 Bft) N 355 0 min 0 W/m 13,3 C 15,1 C 12,9 km/h (3 Bft)
20.05.2019 21:39 15,1 C 90 % 1005,5 hPa 0,0 l/m 5,0 km/h (1 Bft) N 355 0 min 0 W/m 13,5 C 15,1 C 9,7 km/h (2 Bft)
20.05.2019 21:42 15,1 C 90 % 1005,5 hPa 0,0 l/m 5,3 km/h (1 Bft) N-NW 330 0 min 0 W/m 13,5 C 15,1 C 14,5 km/h (3 Bft)
20.05.2019 21:45 15,1 C 90 % 1005,4 hPa 0,0 l/m 7,3 km/h (2 Bft) NW 311 0 min 0 W/m 13,5 C 14,6 C 16,1 km/h (3 Bft)
20.05.2019 21:48 15,0 C 90 % 1005,4 hPa 0,0 l/m 6,3 km/h (2 Bft) N-NW 346 0 min 0 W/m 13,4 C 15,0 C 14,5 km/h (3 Bft)
20.05.2019 21:51 15,1 C 90 % 1005,4 hPa 0,0 l/m 7,8 km/h (2 Bft) N 350 0 min 0 W/m 13,5 C 14,3 C 14,5 km/h (3 Bft)
20.05.2019 21:54 15,0 C 90 % 1005,5 hPa 0,0 l/m 8,6 km/h (2 Bft) N-NW 338 0 min 0 W/m 13,4 C 13,8 C 17,7 km/h (3 Bft)
20.05.2019 21:57 15,0 C 90 % 1005,4 hPa 0,0 l/m 5,3 km/h (1 Bft) NW 317 0 min 0 W/m 13,4 C 15,0 C 14,5 km/h (3 Bft)
20.05.2019 22:00 14,9 C 90 % 1005,4 hPa 0,0 l/m 6,6 km/h (2 Bft) N 351 0 min 0 W/m 13,3 C 14,8 C 14,5 km/h (3 Bft)
20.05.2019 22:03 14,9 C 91 % 1005,3 hPa 0,0 l/m 6,2 km/h (2 Bft) N-NW 342 0 min 0 W/m 13,4 C 14,9 C 14,5 km/h (3 Bft)
20.05.2019 22:06 14,9 C 91 % 1005,3 hPa 0,0 l/m 6,7 km/h (2 Bft) N-NW 336 0 min 0 W/m 13,4 C 14,7 C 16,1 km/h (3 Bft)
20.05.2019 22:09 14,9 C 91 % 1005,2 hPa 0,0 l/m 5,9 km/h (2 Bft) N 350 0 min 0 W/m 13,4 C 14,9 C 14,5 km/h (3 Bft)
20.05.2019 22:12 14,9 C 91 % 1005,2 hPa 0,0 l/m 7,5 km/h (2 Bft) N 5 0 min 0 W/m 13,4 C 14,3 C 17,7 km/h (3 Bft)
20.05.2019 22:15 14,9 C 91 % 1005,1 hPa 0,0 l/m 6,9 km/h (2 Bft) N 5 0 min 0 W/m 13,4 C 14,6 C 14,5 km/h (3 Bft)
20.05.2019 22:18 14,9 C 91 % 1005,1 hPa 0,0 l/m 8,1 km/h (2 Bft) NW 325 0 min 0 W/m 13,4 C 13,9 C 17,7 km/h (3 Bft)
20.05.2019 22:21 14,9 C 92 % 1005,1 hPa 0,0 l/m 5,8 km/h (2 Bft) NW 325 0 min 0 W/m 13,6 C 14,9 C 12,9 km/h (3 Bft)
20.05.2019 22:24 14,9 C 92 % 1005,1 hPa 0,0 l/m 6,7 km/h (2 Bft) NW 319 0 min 0 W/m 13,6 C 14,7 C 14,5 km/h (3 Bft)
20.05.2019 22:27 14,9 C 92 % 1005,0 hPa 0,0 l/m 9,2 km/h (2 Bft) NW 321 0 min 0 W/m 13,6 C 13,4 C 17,7 km/h (3 Bft)
20.05.2019 22:30 14,9 C 92 % 1005,1 hPa 0,0 l/m 7,0 km/h (2 Bft) N 9 0 min 0 W/m 13,6 C 14,6 C 16,1 km/h (3 Bft)
20.05.2019 22:33 14,9 C 92 % 1005,1 hPa 0,0 l/m 9,6 km/h (2 Bft) N 350 0 min 0 W/m 13,6 C 13,2 C 19,3 km/h (3 Bft)
20.05.2019 22:36 14,9 C 92 % 1005,1 hPa 0,0 l/m 7,2 km/h (2 Bft) N 360 0 min 0 W/m 13,6 C 14,4 C 16,1 km/h (3 Bft)
20.05.2019 22:39 14,8 C 92 % 1005,1 hPa 0,0 l/m 6,0 km/h (2 Bft) NW 311 0 min 0 W/m 13,5 C 14,8 C 16,1 km/h (3 Bft)
20.05.2019 22:42 14,8 C 92 % 1005,0 hPa 0,0 l/m 6,1 km/h (2 Bft) N-NW 335 0 min 0 W/m 13,5 C 14,8 C 14,5 km/h (3 Bft)
20.05.2019 22:45 14,9 C 92 % 1005,0 hPa 0,0 l/m 6,7 km/h (2 Bft) N-NW 342 0 min 0 W/m 13,6 C 14,7 C 17,7 km/h (3 Bft)
20.05.2019 22:48 14,9 C 92 % 1005,0 hPa 0,0 l/m 9,0 km/h (2 Bft) N-NW 346 0 min 0 W/m 13,6 C 13,5 C 17,7 km/h (3 Bft)
20.05.2019 22:51 14,9 C 92 % 1005,0 hPa 0,0 l/m 7,3 km/h (2 Bft) N 350 0 min 0 W/m 13,6 C 14,4 C 16,1 km/h (3 Bft)
20.05.2019 22:54 15,0 C 92 % 1005,0 hPa 0,0 l/m 9,1 km/h (2 Bft) N 351 0 min 0 W/m 13,7 C 13,5 C 19,3 km/h (3 Bft)
20.05.2019 22:57 15,0 C 92 % 1005,0 hPa 0,0 l/m 7,4 km/h (2 Bft) N-NW 344 0 min 0 W/m 13,7 C 14,4 C 12,9 km/h (3 Bft)
20.05.2019 23:00 15,1 C 92 % 1005,0 hPa 0,0 l/m 7,7 km/h (2 Bft) N-NW 331 0 min 0 W/m 13,8 C 14,4 C 14,5 km/h (3 Bft)
20.05.2019 23:03 15,1 C 92 % 1005,1 hPa 0,0 l/m 6,9 km/h (2 Bft) N-NW 344 0 min 0 W/m 13,8 C 14,8 C 14,5 km/h (3 Bft)
20.05.2019 23:06 15,1 C 92 % 1005,1 hPa 0,0 l/m 8,5 km/h (2 Bft) N-NW 334 0 min 0 W/m 13,8 C 13,9 C 16,1 km/h (3 Bft)
20.05.2019 23:09 15,1 C 92 % 1005,0 hPa 0,0 l/m 9,0 km/h (2 Bft) N-NW 337 0 min 0 W/m 13,8 C 13,7 C 16,1 km/h (3 Bft)
20.05.2019 23:12 15,0 C 92 % 1005,1 hPa 0,0 l/m 8,0 km/h (2 Bft) N-NW 338 0 min 0 W/m 13,7 C 14,1 C 14,5 km/h (3 Bft)
20.05.2019 23:15 15,0 C 92 % 1005,1 hPa 0,0 l/m 9,5 km/h (2 Bft) N-NW 335 0 min 0 W/m 13,7 C 13,3 C 16,1 km/h (3 Bft)
20.05.2019 23:18 15,0 C 92 % 1005,1 hPa 0,0 l/m 9,6 km/h (2 Bft) N-NW 342 0 min 0 W/m 13,7 C 13,3 C 17,7 km/h (3 Bft)
20.05.2019 23:21 15,0 C 92 % 1005,1 hPa 0,0 l/m 8,1 km/h (2 Bft) NW 323 0 min 0 W/m 13,7 C 14,0 C 14,5 km/h (3 Bft)
20.05.2019 23:24 14,9 C 92 % 1005,1 hPa 0,0 l/m 8,6 km/h (2 Bft) N 355 0 min 0 W/m 13,6 C 13,7 C 14,5 km/h (3 Bft)
20.05.2019 23:27 14,9 C 92 % 1005,2 hPa 0,0 l/m 9,4 km/h (2 Bft) NW 323 0 min 0 W/m 13,6 C 13,3 C 17,7 km/h (3 Bft)
20.05.2019 23:30 14,9 C 92 % 1005,2 hPa 0,0 l/m 7,4 km/h (2 Bft) N-NW 334 0 min 0 W/m 13,6 C 14,3 C 14,5 km/h (3 Bft)
20.05.2019 23:33 14,9 C 92 % 1005,3 hPa 0,0 l/m 6,5 km/h (2 Bft) N 355 0 min 0 W/m 13,6 C 14,9 C 16,1 km/h (3 Bft)
20.05.2019 23:36 14,9 C 92 % 1005,3 hPa 0,0 l/m 5,6 km/h (2 Bft) N-NW 348 0 min 0 W/m 13,6 C 14,9 C 14,5 km/h (3 Bft)
20.05.2019 23:39 14,9 C 92 % 1005,3 hPa 0,0 l/m 7,9 km/h (2 Bft) N-NW 329 0 min 0 W/m 13,6 C 14,1 C 14,5 km/h (3 Bft)
20.05.2019 23:42 14,9 C 92 % 1005,3 hPa 0,0 l/m 7,6 km/h (2 Bft) N-NW 337 0 min 0 W/m 13,6 C 14,2 C 12,9 km/h (3 Bft)
20.05.2019 23:45 14,9 C 92 % 1005,4 hPa 0,0 l/m 5,3 km/h (1 Bft) NW 324 0 min 0 W/m 13,6 C 14,9 C 9,7 km/h (2 Bft)
20.05.2019 23:48 14,9 C 92 % 1005,4 hPa 0,0 l/m 7,7 km/h (2 Bft) N-NW 342 0 min 0 W/m 13,6 C 14,2 C 16,1 km/h (3 Bft)
20.05.2019 23:51 14,9 C 92 % 1005,4 hPa 0,0 l/m 6,3 km/h (2 Bft) NW 313 0 min 0 W/m 13,6 C 14,9 C 16,1 km/h (3 Bft)
20.05.2019 23:54 15,0 C 93 % 1005,3 hPa 0,0 l/m 5,7 km/h (2 Bft) N-NW 342 0 min 0 W/m 13,9 C 15,0 C 12,9 km/h (3 Bft)
20.05.2019 23:57 15,0 C 93 % 1005,3 hPa 0,0 l/m 4,8 km/h (1 Bft) N 349 0 min 0 W/m 13,9 C 15,0 C 14,5 km/h (3 Bft)
_ Min-Zeit 06:54 15:27 02:33 - 01:15 - - - - 06:54 20:51 03:33
Minimum _ 13,2 C 72 % 1004,0 hPa - 0,0 km/h (0 Bft) - - - - 12,4 C 12,7 C 0,0 km/h (0 Bft)
_ Max-Zeit 15:27 07:21 13:42 00:00 18:54 - - 12:45 14:00 14:03 15:24 18:30
Maximum _ 21,4 C 96 % 1005,5 hPa 0,0 l/m 16,9 km/h
NW (3 Bft)
- - 3 min 798 W/m 16,6 C 21,2 C 27,4 km/h
NW (5 Bft)
Durchschnitt _ 16,1 C 88 % 1004,8 hPa #0,0 l/m 5,3 km/h (1 Bft) NO - #5:39 h 280 W/m 14,1 C 15,5 C 10,9 km/h (2 Bft)
2019 Cux-Wetter.de -Die Nutzung der Wetterdaten nur mit ausdrcklicher Genehmigung